Wetterdaten: Freitag, 19.11.2021
Datum Zeit Temp. Aussen Temp. o. S. Temp +5cm Feuchte Auss Luftdruck Regen Sonnenschein Regendauer Solar Windben Empfang
19.11.2021 00:00 9,2 C 8,3 C 6,7 C 95 % 1029,8 hPa 0,0 l/m 0 min 0 min 0 W/m 12,9 km/h (3 Bft) 100,00 %
19.11.2021 00:02 9,2 C 8,3 C 6,7 C 95 % 1029,8 hPa 0,0 l/m 0 min 0 min 0 W/m 6,4 km/h (2 Bft) 100,00 %
19.11.2021 00:04 9,2 C 8,3 C 6,7 C 95 % 1029,8 hPa 0,0 l/m 0 min 0 min 0 W/m 12,9 km/h (3 Bft) 100,00 %
19.11.2021 00:08 9,2 C 8,3 C 6,7 C 95 % 1029,7 hPa 0,0 l/m 0 min 0 min 0 W/m 12,9 km/h (3 Bft) 98,92 %
19.11.2021 00:10 9,2 C 8,3 C 6,7 C 95 % 1029,7 hPa 0,0 l/m 0 min 0 min 0 W/m 9,7 km/h (2 Bft) 100,00 %
19.11.2021 00:12 9,2 C 8,3 C 6,7 C 95 % 1029,7 hPa 0,0 l/m 0 min 0 min 0 W/m 3,2 km/h (1 Bft) 100,00 %
19.11.2021 00:14 9,2 C 8,3 C 6,7 C 95 % 1029,7 hPa 0,0 l/m 0 min 0 min 0 W/m 12,9 km/h (3 Bft) 100,00 %
19.11.2021 00:16 9,2 C 8,3 C 6,7 C 95 % 1029,7 hPa 0,0 l/m 0 min 0 min 0 W/m 12,9 km/h (3 Bft) 97,87 %
19.11.2021 00:18 9,2 C 8,3 C 6,7 C 95 % 1029,7 hPa 0,0 l/m 0 min 0 min 0 W/m 16,1 km/h (3 Bft) 100,00 %
19.11.2021 00:20 9,2 C 8,3 C 6,7 C 95 % 1029,7 hPa 0,0 l/m 0 min 0 min 0 W/m 6,4 km/h (2 Bft) 100,00 %
19.11.2021 00:22 9,2 C 8,3 C 6,7 C 95 % 1029,6 hPa 0,0 l/m 0 min 0 min 0 W/m 6,4 km/h (2 Bft) 100,00 %
19.11.2021 00:24 9,2 C 8,3 C 6,7 C 95 % 1029,6 hPa 0,0 l/m 0 min 0 min 0 W/m 6,4 km/h (2 Bft) 95,74 %
19.11.2021 00:26 9,2 C 8,3 C 6,7 C 95 % 1029,6 hPa 0,0 l/m 0 min 0 min 0 W/m 6,4 km/h (2 Bft) 100,00 %
19.11.2021 00:28 9,2 C 8,3 C 6,7 C 95 % 1029,6 hPa 0,0 l/m 0 min 0 min 0 W/m 12,9 km/h (3 Bft) 97,87 %
19.11.2021 00:30 9,2 C 8,3 C 6,7 C 95 % 1029,6 hPa 0,0 l/m 0 min 0 min 0 W/m 6,4 km/h (2 Bft) 97,83 %
19.11.2021 00:32 9,1 C 8,3 C 6,7 C 96 % 1029,6 hPa 0,0 l/m 0 min 0 min 0 W/m 9,7 km/h (2 Bft) 95,74 %
19.11.2021 00:34 9,2 C 8,3 C 6,7 C 96 % 1029,6 hPa 0,0 l/m 0 min 0 min 0 W/m 6,4 km/h (2 Bft) 97,87 %
19.11.2021 00:36 9,1 C 8,3 C 6,7 C 96 % 1029,6 hPa 0,0 l/m 0 min 0 min 0 W/m 12,9 km/h (3 Bft) 95,74 %
19.11.2021 00:38 9,2 C 8,3 C 6,7 C 96 % 1029,5 hPa 0,0 l/m 0 min 0 min 0 W/m 12,9 km/h (3 Bft) 97,87 %
19.11.2021 00:40 9,2 C 8,9 C 6,7 C 96 % 1029,5 hPa 0,0 l/m 0 min 0 min 0 W/m 12,9 km/h (3 Bft) 97,83 %
19.11.2021 00:42 9,2 C 8,9 C 6,7 C 96 % 1029,6 hPa 0,0 l/m 0 min 0 min 0 W/m 9,7 km/h (2 Bft) 97,87 %
19.11.2021 00:44 9,2 C 8,9 C 6,7 C 96 % 1029,5 hPa 0,0 l/m 0 min 0 min 0 W/m 12,9 km/h (3 Bft) 97,87 %
19.11.2021 00:46 9,2 C 8,9 C 6,7 C 96 % 1029,5 hPa 0,0 l/m 0 min 0 min 0 W/m 12,9 km/h (3 Bft) 97,87 %
19.11.2021 00:48 9,2 C 8,9 C 6,7 C 96 % 1029,4 hPa 0,0 l/m 0 min 0 min 0 W/m 6,4 km/h (2 Bft) 97,87 %
19.11.2021 00:50 9,2 C 8,9 C 6,7 C 96 % 1029,4 hPa 0,0 l/m 0 min 0 min 0 W/m 12,9 km/h (3 Bft) 97,87 %
19.11.2021 00:52 9,2 C 8,9 C 6,7 C 96 % 1029,5 hPa 0,0 l/m 0 min 0 min 0 W/m 9,7 km/h (2 Bft) 97,83 %
19.11.2021 00:54 9,1 C 8,9 C 6,7 C 96 % 1029,4 hPa 0,0 l/m 0 min 0 min 0 W/m 6,4 km/h (2 Bft) 95,74 %
19.11.2021 00:56 9,2 C 8,9 C 6,7 C 96 % 1029,4 hPa 0,0 l/m 0 min 0 min 0 W/m 9,7 km/h (2 Bft) 95,74 %
19.11.2021 00:58 9,1 C 8,9 C 7,2 C 96 % 1029,4 hPa 0,0 l/m 0 min 0 min 0 W/m 16,1 km/h (3 Bft) 97,87 %
19.11.2021 01:00 9,2 C 8,9 C 7,2 C 96 % 1029,4 hPa 0,0 l/m 0 min 0 min 0 W/m 6,4 km/h (2 Bft) 97,87 %
19.11.2021 01:02 9,2 C 8,9 C 7,2 C 96 % 1029,5 hPa 0,0 l/m 0 min 0 min 0 W/m 6,4 km/h (2 Bft) 97,92 %
19.11.2021 01:04 9,1 C 8,9 C 7,2 C 96 % 1029,5 hPa 0,0 l/m 0 min 0 min 0 W/m 16,1 km/h (3 Bft) 97,83 %
19.11.2021 01:06 9,2 C 8,9 C 7,2 C 96 % 1029,5 hPa 0,0 l/m 0 min 0 min 0 W/m 9,7 km/h (2 Bft) 97,87 %
19.11.2021 01:08 9,2 C 8,9 C 7,2 C 96 % 1029,5 hPa 0,0 l/m 0 min 0 min 0 W/m 12,9 km/h (3 Bft) 93,62 %
19.11.2021 01:10 9,2 C 8,9 C 7,2 C 96 % 1029,6 hPa 0,0 l/m 0 min 0 min 0 W/m 6,4 km/h (2 Bft) 100,00 %
19.11.2021 01:12 9,2 C 8,9 C 7,2 C 96 % 1029,5 hPa 0,0 l/m 0 min 0 min 0 W/m 12,9 km/h (3 Bft) 95,74 %
19.11.2021 01:14 9,2 C 8,9 C 7,2 C 96 % 1029,6 hPa 0,0 l/m 0 min 0 min 0 W/m 6,4 km/h (2 Bft) 97,87 %
19.11.2021 01:16 9,2 C 8,9 C 7,2 C 96 % 1029,4 hPa 0,0 l/m 0 min 0 min 0 W/m 3,2 km/h (1 Bft) 95,65 %
19.11.2021 01:18 9,2 C 8,9 C 7,2 C 96 % 1029,5 hPa 0,0 l/m 0 min 0 min 0 W/m 6,4 km/h (2 Bft) 97,87 %
19.11.2021 01:20 9,2 C 8,9 C 7,2 C 96 % 1029,4 hPa 0,0 l/m 0 min 0 min 0 W/m 12,9 km/h (3 Bft) 97,87 %
19.11.2021 01:22 9,2 C 8,9 C 7,2 C 96 % 1029,5 hPa 0,0 l/m 0 min 0 min 0 W/m 6,4 km/h (2 Bft) 97,87 %
19.11.2021 01:24 9,2 C 8,9 C 7,2 C 96 % 1029,4 hPa 0,0 l/m 0 min 0 min 0 W/m 6,4 km/h (2 Bft) 97,87 %
19.11.2021 01:26 9,2 C 8,9 C 7,2 C 96 % 1029,4 hPa 0,0 l/m 0 min 0 min 0 W/m 0,0 km/h (0 Bft) 97,87 %
19.11.2021 01:28 9,2 C 8,9 C 7,2 C 96 % 1029,4 hPa 0,0 l/m 0 min 0 min 0 W/m 12,9 km/h (3 Bft) 95,65 %
19.11.2021 01:30 9,2 C 8,9 C 7,2 C 96 % 1029,4 hPa 0,0 l/m 0 min 0 min 0 W/m 6,4 km/h (2 Bft) 95,74 %
19.11.2021 01:32 9,2 C 8,9 C 7,2 C 95 % 1029,4 hPa 0,0 l/m 0 min 0 min 0 W/m 6,4 km/h (2 Bft) 95,83 %
19.11.2021 01:34 9,2 C 8,9 C 7,2 C 95 % 1029,4 hPa 0,0 l/m 0 min 0 min 0 W/m 22,5 km/h (4 Bft) 95,74 %
19.11.2021 01:36 9,2 C 8,9 C 7,2 C 95 % 1029,4 hPa 0,0 l/m 0 min 0 min 0 W/m 16,1 km/h (3 Bft) 95,74 %
19.11.2021 01:38 9,2 C 8,9 C 7,2 C 95 % 1029,4 hPa 0,0 l/m 0 min 0 min 0 W/m 6,4 km/h (2 Bft) 95,74 %
19.11.2021 01:40 9,2 C 8,9 C 7,2 C 95 % 1029,4 hPa 0,0 l/m 0 min 0 min 0 W/m 9,7 km/h (2 Bft) 95,65 %
19.11.2021 01:42 9,2 C 8,9 C 7,2 C 95 % 1029,3 hPa 0,0 l/m 0 min 0 min 0 W/m 19,3 km/h (3 Bft) 91,49 %
19.11.2021 01:44 9,2 C 8,9 C 7,2 C 95 % 1029,3 hPa 0,0 l/m 0 min 0 min 0 W/m 6,4 km/h (2 Bft) 95,74 %
19.11.2021 01:46 9,2 C 8,9 C 7,2 C 95 % 1029,3 hPa 0,0 l/m 0 min 0 min 0 W/m 22,5 km/h (4 Bft) 97,87 %
19.11.2021 01:48 9,2 C 8,9 C 7,2 C 95 % 1029,3 hPa 0,0 l/m 0 min 0 min 0 W/m 12,9 km/h (3 Bft) 97,87 %
19.11.2021 01:50 9,2 C 8,9 C 7,2 C 95 % 1029,3 hPa 0,0 l/m 0 min 0 min 0 W/m 9,7 km/h (2 Bft) 97,87 %
19.11.2021 01:52 9,2 C 8,9 C 7,2 C 95 % 1029,4 hPa 0,0 l/m 0 min 0 min 0 W/m 6,4 km/h (2 Bft) 97,83 %
19.11.2021 01:54 9,2 C 8,9 C 7,2 C 95 % 1029,4 hPa 0,0 l/m 0 min 0 min 0 W/m 6,4 km/h (2 Bft) 97,87 %
19.11.2021 01:56 9,2 C 8,9 C 7,2 C 95 % 1029,4 hPa 0,0 l/m 0 min 0 min 0 W/m 16,1 km/h (3 Bft) 97,87 %
19.11.2021 01:58 9,2 C 8,9 C 7,2 C 95 % 1029,4 hPa 0,0 l/m 0 min 0 min 0 W/m 9,7 km/h (2 Bft) 95,74 %
19.11.2021 02:00 9,2 C 8,9 C 7,2 C 95 % 1029,4 hPa 0,0 l/m 0 min 0 min 0 W/m 6,4 km/h (2 Bft) 97,87 %
19.11.2021 02:02 9,3 C 8,9 C 7,2 C 95 % 1029,5 hPa 0,0 l/m 0 min 0 min 0 W/m 12,9 km/h (3 Bft) 95,65 %
19.11.2021 02:04 9,3 C 8,9 C 7,2 C 95 % 1029,4 hPa 0,0 l/m 0 min 0 min 0 W/m 6,4 km/h (2 Bft) 97,87 %
19.11.2021 02:06 9,2 C 8,9 C 7,2 C 95 % 1029,5 hPa 0,0 l/m 0 min 0 min 0 W/m 12,9 km/h (3 Bft) 97,87 %
19.11.2021 02:08 9,3 C 8,9 C 7,2 C 95 % 1029,5 hPa 0,0 l/m 0 min 0 min 0 W/m 12,9 km/h (3 Bft) 97,87 %
19.11.2021 02:10 9,3 C 8,9 C 7,2 C 95 % 1029,5 hPa 0,0 l/m 0 min 0 min 0 W/m 9,7 km/h (2 Bft) 97,87 %
19.11.2021 02:12 9,3 C 8,9 C 7,2 C 95 % 1029,6 hPa 0,0 l/m 0 min 0 min 0 W/m 9,7 km/h (2 Bft) 97,87 %
19.11.2021 02:14 9,3 C 8,9 C 7,2 C 95 % 1029,5 hPa 0,0 l/m 0 min 0 min 0 W/m 9,7 km/h (2 Bft) 95,65 %
19.11.2021 02:16 9,3 C 8,9 C 7,2 C 95 % 1029,5 hPa 0,0 l/m 0 min 0 min 0 W/m 6,4 km/h (2 Bft) 95,74 %
19.11.2021 02:18 9,3 C 8,9 C 7,2 C 95 % 1029,5 hPa 0,0 l/m 0 min 0 min 0 W/m 12,9 km/h (3 Bft) 100,00 %
19.11.2021 02:20 9,3 C 8,9 C 7,2 C 95 % 1029,5 hPa 0,0 l/m 0 min 0 min 0 W/m 6,4 km/h (2 Bft) 97,87 %
19.11.2021 02:22 9,3 C 8,3 C 7,2 C 95 % 1029,5 hPa 0,0 l/m 0 min 0 min 0 W/m 3,2 km/h (1 Bft) 100,00 %
19.11.2021 02:24 9,3 C 8,9 C 7,2 C 95 % 1029,5 hPa 0,0 l/m 0 min 0 min 0 W/m 6,4 km/h (2 Bft) 97,87 %
19.11.2021 02:26 9,3 C 8,3 C 7,2 C 95 % 1029,5 hPa 0,0 l/m 0 min 0 min 0 W/m 6,4 km/h (2 Bft) 97,83 %
19.11.2021 02:28 9,3 C 8,3 C 7,2 C 95 % 1029,5 hPa 0,0 l/m 0 min 0 min 0 W/m 6,4 km/h (2 Bft) 100,00 %
19.11.2021 02:30 9,3 C 8,3 C 7,2 C 95 % 1029,5 hPa 0,0 l/m 0 min 0 min 0 W/m 6,4 km/h (2 Bft) 100,00 %
19.11.2021 02:32 9,3 C 8,3 C 7,2 C 95 % 1029,5 hPa 0,0 l/m 0 min 0 min 0 W/m 6,4 km/h (2 Bft) 100,00 %
19.11.2021 02:34 9,2 C 8,3 C 7,2 C 95 % 1029,5 hPa 0,0 l/m 0 min 0 min 0 W/m 6,4 km/h (2 Bft) 97,87 %
19.11.2021 02:36 9,2 C 8,3 C 7,2 C 95 % 1029,5 hPa 0,0 l/m 0 min 0 min 0 W/m 12,9 km/h (3 Bft) 100,00 %
19.11.2021 02:38 9,2 C 8,3 C 7,2 C 95 % 1029,5 hPa 0,0 l/m 0 min 0 min 0 W/m 6,4 km/h (2 Bft) 100,00 %
19.11.2021 02:40 9,3 C 8,3 C 7,2 C 95 % 1029,5 hPa 0,0 l/m 0 min 0 min 0 W/m 9,7 km/h (2 Bft) 100,00 %
19.11.2021 02:42 9,2 C 8,3 C 7,2 C 95 % 1029,6 hPa 0,0 l/m 0 min 0 min 0 W/m 12,9 km/h (3 Bft) 97,87 %
19.11.2021 02:44 9,2 C 8,3 C 7,2 C 95 % 1029,5 hPa 0,0 l/m 0 min 0 min 0 W/m 6,4 km/h (2 Bft) 100,00 %
19.11.2021 02:46 9,2 C 8,3 C 7,2 C 95 % 1029,5 hPa 0,0 l/m 0 min 0 min 0 W/m 9,7 km/h (2 Bft) 100,00 %
19.11.2021 02:48 9,2 C 8,3 C 7,2 C 95 % 1029,6 hPa 0,0 l/m 0 min 0 min 0 W/m 6,4 km/h (2 Bft) 97,87 %
19.11.2021 02:50 9,2 C 8,3 C 7,2 C 95 % 1029,6 hPa 0,0 l/m 0 min 0 min 0 W/m 6,4 km/h (2 Bft) 97,83 %
19.11.2021 02:52 9,2 C 8,3 C 7,2 C 95 % 1029,6 hPa 0,0 l/m 0 min 0 min 0 W/m 9,7 km/h (2 Bft) 97,87 %
19.11.2021 02:54 9,2 C 8,3 C 7,2 C 95 % 1029,6 hPa 0,0 l/m 0 min 0 min 0 W/m 9,7 km/h (2 Bft) 97,87 %
19.11.2021 02:56 9,2 C 8,3 C 7,2 C 95 % 1029,6 hPa 0,0 l/m 0 min 0 min 0 W/m 6,4 km/h (2 Bft) 97,87 %
19.11.2021 02:58 9,2 C 8,3 C 7,2 C 95 % 1029,5 hPa 0,0 l/m 0 min 0 min 0 W/m 12,9 km/h (3 Bft) 97,87 %
19.11.2021 03:00 9,1 C 8,3 C 7,2 C 95 % 1029,6 hPa 0,0 l/m 0 min 0 min 0 W/m 9,7 km/h (2 Bft) 97,87 %
19.11.2021 03:02 9,2 C 8,3 C 7,2 C 95 % 1029,6 hPa 0,0 l/m 0 min 0 min 0 W/m 6,4 km/h (2 Bft) 97,83 %
19.11.2021 03:04 9,1 C 8,3 C 7,2 C 95 % 1029,6 hPa 0,0 l/m 0 min 0 min 0 W/m 9,7 km/h (2 Bft) 97,87 %
19.11.2021 03:06 9,2 C 8,3 C 7,2 C 95 % 1029,6 hPa 0,0 l/m 0 min 0 min 0 W/m 6,4 km/h (2 Bft) 95,74 %
19.11.2021 03:08 9,1 C 8,3 C 7,2 C 95 % 1029,6 hPa 0,0 l/m 0 min 0 min 0 W/m 6,4 km/h (2 Bft) 97,87 %
19.11.2021 03:10 9,1 C 8,3 C 7,2 C 95 % 1029,6 hPa 0,0 l/m 0 min 0 min 0 W/m 6,4 km/h (2 Bft) 95,74 %
19.11.2021 03:12 9,2 C 8,3 C 7,2 C 95 % 1029,6 hPa 0,0 l/m 0 min 0 min 0 W/m 12,9 km/h (3 Bft) 95,74 %
19.11.2021 03:14 9,2 C 8,3 C 7,2 C 95 % 1029,6 hPa 0,0 l/m 0 min 0 min 0 W/m 6,4 km/h (2 Bft) 93,48 %
19.11.2021 03:16 9,2 C 8,3 C 7,2 C 95 % 1029,5 hPa 0,0 l/m 0 min 0 min 0 W/m 6,4 km/h (2 Bft) 95,74 %
19.11.2021 03:18 9,2 C 8,3 C 7,2 C 95 % 1029,6 hPa 0,0 l/m 0 min 0 min 0 W/m 9,7 km/h (2 Bft) 95,74 %
19.11.2021 03:20 9,2 C 8,3 C 6,7 C 95 % 1029,6 hPa 0,0 l/m 0 min 0 min 0 W/m 3,2 km/h (1 Bft) 95,74 %
19.11.2021 03:22 9,2 C 8,3 C 6,7 C 95 % 1029,6 hPa 0,0 l/m 0 min 0 min 0 W/m 9,7 km/h (2 Bft) 93,62 %
19.11.2021 03:24 9,2 C 8,3 C 6,7 C 96 % 1029,6 hPa 0,0 l/m 0 min 0 min 0 W/m 3,2 km/h (1 Bft) 95,74 %
19.11.2021 03:26 9,2 C 8,3 C 6,7 C 96 % 1029,7 hPa 0,0 l/m 0 min 0 min 0 W/m 3,2 km/h (1 Bft) 95,65 %
19.11.2021 03:28 9,2 C 8,3 C 6,7 C 96 % 1029,7 hPa 0,0 l/m 0 min 0 min 0 W/m 3,2 km/h (1 Bft) 95,74 %
19.11.2021 03:30 9,2 C 8,3 C 6,7 C 96 % 1029,7 hPa 0,0 l/m 0 min 0 min 0 W/m 6,4 km/h (2 Bft) 93,62 %
19.11.2021 03:32 9,2 C 8,3 C 6,7 C 96 % 1029,7 hPa 0,0 l/m 0 min 0 min 0 W/m 0,0 km/h (0 Bft) 95,83 %
19.11.2021 03:34 9,2 C 8,3 C 6,7 C 96 % 1029,6 hPa 0,0 l/m 0 min 0 min 0 W/m 0,0 km/h (0 Bft) 95,74 %
19.11.2021 03:36 9,2 C 8,3 C 6,7 C 96 % 1029,7 hPa 0,0 l/m 0 min 0 min 0 W/m 0,0 km/h (0 Bft) 95,65 %
19.11.2021 03:38 9,2 C 8,3 C 6,7 C 96 % 1029,6 hPa 0,0 l/m 0 min 0 min 0 W/m 0,0 km/h (0 Bft) 93,62 %
19.11.2021 03:40 9,2 C 8,3 C 6,7 C 96 % 1029,6 hPa 0,0 l/m 0 min 0 min 0 W/m 0,0 km/h (0 Bft) 93,62 %
19.11.2021 03:42 9,2 C 8,3 C 6,7 C 96 % 1029,6 hPa 0,0 l/m 0 min 0 min 0 W/m 0,0 km/h (0 Bft) 97,87 %
19.11.2021 03:44 9,2 C 8,3 C 6,7 C 96 % 1029,6 hPa 0,0 l/m 0 min 0 min 0 W/m 0,0 km/h (0 Bft) 100,00 %
19.11.2021 03:46 9,2 C 8,3 C 6,7 C 96 % 1029,6 hPa 0,0 l/m 0 min 0 min 0 W/m 3,2 km/h (1 Bft) 100,00 %
19.11.2021 03:48 9,2 C 8,3 C 6,7 C 96 % 1029,5 hPa 0,0 l/m 0 min 0 min 0 W/m 12,9 km/h (3 Bft) 97,83 %
19.11.2021 03:50 9,2 C 8,3 C 6,7 C 96 % 1029,5 hPa 0,0 l/m 0 min 0 min 0 W/m 12,9 km/h (3 Bft) 100,00 %
19.11.2021 03:52 9,2 C 8,3 C 6,7 C 96 % 1029,5 hPa 0,0 l/m 0 min 0 min 0 W/m 9,7 km/h (2 Bft) 100,00 %
19.11.2021 03:54 9,2 C 8,3 C 6,7 C 96 % 1029,4 hPa 0,0 l/m 0 min 0 min 0 W/m 6,4 km/h (2 Bft) 100,00 %
19.11.2021 03:56 9,2 C 8,3 C 6,7 C 96 % 1029,5 hPa 0,0 l/m 0 min 0 min 0 W/m 9,7 km/h (2 Bft) 100,00 %
19.11.2021 03:58 9,2 C 8,3 C 6,7 C 96 % 1029,4 hPa 0,0 l/m 0 min 0 min 0 W/m 3,2 km/h (1 Bft) 97,87 %
19.11.2021 04:00 9,2 C 8,3 C 6,7 C 96 % 1029,4 hPa 0,0 l/m 0 min 0 min 0 W/m 6,4 km/h (2 Bft) 100,00 %
19.11.2021 04:02 9,2 C 8,3 C 7,2 C 96 % 1029,4 hPa 0,0 l/m 0 min 0 min 0 W/m 6,4 km/h (2 Bft) 100,00 %
19.11.2021 04:04 9,2 C 8,3 C 7,2 C 96 % 1029,4 hPa 0,0 l/m 0 min 0 min 0 W/m 6,4 km/h (2 Bft) 93,62 %
19.11.2021 04:06 9,2 C 8,3 C 7,2 C 96 % 1029,5 hPa 0,0 l/m 0 min 0 min 0 W/m 12,9 km/h (3 Bft) 97,87 %
19.11.2021 04:08 9,3 C 8,3 C 7,2 C 96 % 1029,5 hPa 0,0 l/m 0 min 0 min 0 W/m 6,4 km/h (2 Bft) 100,00 %
19.11.2021 04:10 9,3 C 8,3 C 7,2 C 96 % 1029,5 hPa 0,0 l/m 0 min 0 min 0 W/m 9,7 km/h (2 Bft) 100,00 %
19.11.2021 04:12 9,3 C 8,3 C 7,2 C 96 % 1029,4 hPa 0,0 l/m 0 min 0 min 0 W/m 9,7 km/h (2 Bft) 100,00 %
19.11.2021 04:14 9,3 C 8,3 C 7,2 C 96 % 1029,4 hPa 0,0 l/m 0 min 0 min 0 W/m 9,7 km/h (2 Bft) 100,00 %
19.11.2021 04:16 9,3 C 8,3 C 7,2 C 96 % 1029,4 hPa 0,0 l/m 0 min 0 min 0 W/m 12,9 km/h (3 Bft) 100,00 %
19.11.2021 04:18 9,3 C 8,3 C 7,2 C 96 % 1029,4 hPa 0,0 l/m 0 min 0 min 0 W/m 6,4 km/h (2 Bft) 100,00 %
19.11.2021 04:20 9,2 C 8,3 C 7,2 C 96 % 1029,4 hPa 0,0 l/m 0 min 0 min 0 W/m 9,7 km/h (2 Bft) 97,87 %
19.11.2021 04:22 9,3 C 8,3 C 7,2 C 96 % 1029,4 hPa 0,0 l/m 0 min 0 min 0 W/m 6,4 km/h (2 Bft) 97,87 %
19.11.2021 04:24 9,2 C 8,3 C 7,2 C 96 % 1029,4 hPa 0,0 l/m 0 min 0 min 0 W/m 9,7 km/h (2 Bft) 97,83 %
19.11.2021 04:26 9,2 C 8,3 C 7,2 C 96 % 1029,4 hPa 0,0 l/m 0 min 0 min 0 W/m 16,1 km/h (3 Bft) 97,87 %
19.11.2021 04:28 9,2 C 8,3 C 7,2 C 96 % 1029,3 hPa 0,0 l/m 0 min 0 min 0 W/m 9,7 km/h (2 Bft) 97,87 %
19.11.2021 04:30 9,2 C 8,3 C 7,2 C 96 % 1029,3 hPa 0,0 l/m 0 min 0 min 0 W/m 12,9 km/h (3 Bft) 97,87 %
19.11.2021 04:32 9,2 C 8,3 C 7,2 C 96 % 1029,3 hPa 0,0 l/m 0 min 0 min 0 W/m 12,9 km/h (3 Bft) 97,87 %
19.11.2021 04:34 9,2 C 8,3 C 7,2 C 96 % 1029,3 hPa 0,0 l/m 0 min 0 min 0 W/m 6,4 km/h (2 Bft) 93,62 %
19.11.2021 04:36 9,2 C 8,3 C 7,2 C 96 % 1029,2 hPa 0,0 l/m 0 min 0 min 0 W/m 6,4 km/h (2 Bft) 97,83 %
19.11.2021 04:38 9,2 C 8,3 C 7,2 C 96 % 1029,2 hPa 0,0 l/m 0 min 0 min 0 W/m 12,9 km/h (3 Bft) 97,87 %
19.11.2021 04:40 9,2 C 8,3 C 7,2 C 96 % 1029,2 hPa 0,0 l/m 0 min 0 min 0 W/m 9,7 km/h (2 Bft) 97,87 %
19.11.2021 04:42 9,2 C 8,3 C 7,2 C 96 % 1029,2 hPa 0,0 l/m 0 min 0 min 0 W/m 6,4 km/h (2 Bft) 95,74 %
19.11.2021 04:44 9,2 C 8,3 C 7,2 C 96 % 1029,2 hPa 0,0 l/m 0 min 0 min 0 W/m 12,9 km/h (3 Bft) 93,62 %
19.11.2021 04:46 9,2 C 8,3 C 7,2 C 96 % 1029,2 hPa 0,0 l/m 0 min 0 min 0 W/m 12,9 km/h (3 Bft) 95,74 %
19.11.2021 04:48 9,2 C 8,3 C 7,2 C 96 % 1029,2 hPa 0,0 l/m 0 min 0 min 0 W/m 9,7 km/h (2 Bft) 97,83 %
19.11.2021 04:50 9,2 C 8,3 C 7,2 C 97 % 1029,2 hPa 0,0 l/m 0 min 0 min 0 W/m 12,9 km/h (3 Bft) 97,87 %
19.11.2021 04:52 9,2 C 8,3 C 7,2 C 97 % 1029,3 hPa 0,0 l/m 0 min 0 min 0 W/m 12,9 km/h (3 Bft) 93,62 %
19.11.2021 04:54 9,3 C 8,3 C 7,2 C 97 % 1029,4 hPa 0,0 l/m 0 min 0 min 0 W/m 6,4 km/h (2 Bft) 97,87 %
19.11.2021 04:56 9,3 C 8,3 C 7,2 C 97 % 1029,4 hPa 0,0 l/m 0 min 0 min 0 W/m 9,7 km/h (2 Bft) 97,87 %
19.11.2021 04:58 9,3 C 8,3 C 7,2 C 97 % 1029,4 hPa 0,0 l/m 0 min 0 min 0 W/m 6,4 km/h (2 Bft) 97,83 %
19.11.2021 05:00 9,3 C 8,3 C 7,2 C 97 % 1029,4 hPa 0,0 l/m 0 min 0 min 0 W/m 6,4 km/h (2 Bft) 97,87 %
19.11.2021 05:02 9,3 C 8,3 C 7,2 C 97 % 1029,4 hPa 0,0 l/m 0 min 0 min 0 W/m 6,4 km/h (2 Bft) 95,83 %
19.11.2021 05:04 9,3 C 8,9 C 7,2 C 97 % 1029,4 hPa 0,0 l/m 0 min 0 min 0 W/m 6,4 km/h (2 Bft) 97,87 %
19.11.2021 05:06 9,3 C 8,9 C 7,2 C 97 % 1029,4 hPa 0,0 l/m 0 min 0 min 0 W/m 9,7 km/h (2 Bft) 97,87 %
19.11.2021 05:08 9,3 C 8,9 C 7,2 C 97 % 1029,4 hPa 0,0 l/m 0 min 0 min 0 W/m 12,9 km/h (3 Bft) 93,62 %
19.11.2021 05:10 9,3 C 8,9 C 7,2 C 97 % 1029,4 hPa 0,0 l/m 0 min 0 min 0 W/m 9,7 km/h (2 Bft) 97,83 %
19.11.2021 05:12 9,4 C 8,9 C 7,2 C 97 % 1029,4 hPa 0,0 l/m 0 min 0 min 0 W/m 16,1 km/h (3 Bft) 97,87 %
19.11.2021 05:14 9,4 C 8,9 C 7,2 C 97 % 1029,4 hPa 0,0 l/m 0 min 0 min 0 W/m 12,9 km/h (3 Bft) 95,74 %
19.11.2021 05:16 9,4 C 8,9 C 7,2 C 97 % 1029,4 hPa 0,0 l/m 0 min 0 min 0 W/m 6,4 km/h (2 Bft) 95,74 %
19.11.2021 05:18 9,4 C 8,9 C 7,2 C 97 % 1029,4 hPa 0,0 l/m 0 min 0 min 0 W/m 6,4 km/h (2 Bft) 97,87 %
19.11.2021 05:20 9,4 C 8,9 C 7,2 C 97 % 1029,4 hPa 0,0 l/m 0 min 0 min 0 W/m 16,1 km/h (3 Bft) 95,74 %
19.11.2021 05:22 9,4 C 8,9 C 7,2 C 97 % 1029,4 hPa 0,0 l/m 0 min 0 min 0 W/m 19,3 km/h (3 Bft) 93,48 %
19.11.2021 05:24 9,4 C 8,9 C 7,2 C 97 % 1029,4 hPa 0,0 l/m 0 min 0 min 0 W/m 16,1 km/h (3 Bft) 97,87 %
19.11.2021 05:26 9,4 C 8,9 C 7,2 C 97 % 1029,3 hPa 0,0 l/m 0 min 0 min 0 W/m 12,9 km/h (3 Bft) 95,74 %
19.11.2021 05:28 9,4 C 8,9 C 7,2 C 97 % 1029,4 hPa 0,0 l/m 0 min 0 min 0 W/m 19,3 km/h (3 Bft) 95,74 %
19.11.2021 05:30 9,4 C 8,9 C 7,2 C 97 % 1029,3 hPa 0,0 l/m 0 min 0 min 0 W/m 19,3 km/h (3 Bft) 97,87 %
19.11.2021 05:32 9,4 C 8,9 C 7,2 C 97 % 1029,4 hPa 0,0 l/m 0 min 0 min 0 W/m 16,1 km/h (3 Bft) 97,87 %
19.11.2021 05:34 9,4 C 8,9 C 7,2 C 97 % 1029,4 hPa 0,0 l/m 0 min 0 min 0 W/m 12,9 km/h (3 Bft) 95,65 %
19.11.2021 05:36 9,4 C 8,9 C 7,2 C 97 % 1029,4 hPa 0,0 l/m 0 min 0 min 0 W/m 12,9 km/h (3 Bft) 93,62 %
19.11.2021 05:38 9,4 C 8,9 C 7,2 C 97 % 1029,4 hPa 0,0 l/m 0 min 0 min 0 W/m 12,9 km/h (3 Bft) 95,74 %
19.11.2021 05:40 9,4 C 8,9 C 7,2 C 97 % 1029,5 hPa 0,0 l/m 0 min 0 min 0 W/m 12,9 km/h (3 Bft) 97,87 %
19.11.2021 05:42 9,4 C 8,9 C 7,2 C 97 % 1029,4 hPa 0,0 l/m 0 min 0 min 0 W/m 12,9 km/h (3 Bft) 95,74 %
19.11.2021 05:44 9,4 C 8,9 C 7,2 C 97 % 1029,4 hPa 0,0 l/m 0 min 0 min 0 W/m 12,9 km/h (3 Bft) 95,74 %
19.11.2021 05:46 9,4 C 8,9 C 7,2 C 97 % 1029,4 hPa 0,0 l/m 0 min 0 min 0 W/m 12,9 km/h (3 Bft) 97,83 %
19.11.2021 05:48 9,4 C 8,9 C 7,2 C 97 % 1029,4 hPa 0,0 l/m 0 min 0 min 0 W/m 19,3 km/h (3 Bft) 97,87 %
19.11.2021 05:50 9,4 C 8,9 C 7,2 C 97 % 1029,4 hPa 0,0 l/m 0 min 0 min 0 W/m 12,9 km/h (3 Bft) 97,87 %
19.11.2021 05:52 9,4 C 8,9 C 7,2 C 97 % 1029,4 hPa 0,0 l/m 0 min 0 min 0 W/m 16,1 km/h (3 Bft) 93,62 %
19.11.2021 05:54 9,4 C 8,9 C 7,2 C 97 % 1029,4 hPa 0,0 l/m 0 min 0 min 0 W/m 12,9 km/h (3 Bft) 97,87 %
19.11.2021 05:56 9,4 C 8,9 C 7,2 C 97 % 1029,4 hPa 0,0 l/m 0 min 0 min 0 W/m 16,1 km/h (3 Bft) 97,87 %
19.11.2021 05:58 9,4 C 8,9 C 7,2 C 97 % 1029,5 hPa 0,0 l/m 0 min 0 min 0 W/m 9,7 km/h (2 Bft) 97,83 %
19.11.2021 06:00 9,4 C 8,9 C 7,2 C 97 % 1029,4 hPa 0,0 l/m 0 min 0 min 0 W/m 12,9 km/h (3 Bft) 97,87 %
19.11.2021 06:02 9,4 C 8,9 C 7,2 C 97 % 1029,4 hPa 0,0 l/m 0 min 0 min 0 W/m 12,9 km/h (3 Bft) 97,87 %
19.11.2021 06:04 9,4 C 8,9 C 7,2 C 97 % 1029,4 hPa 0,0 l/m 0 min 0 min 0 W/m 12,9 km/h (3 Bft) 97,87 %
19.11.2021 06:06 9,4 C 8,9 C 7,2 C 97 % 1029,4 hPa 0,0 l/m 0 min 0 min 0 W/m 16,1 km/h (3 Bft) 97,92 %
19.11.2021 06:08 9,4 C 8,9 C 7,2 C 97 % 1029,4 hPa 0,0 l/m 0 min 0 min 0 W/m 19,3 km/h (3 Bft) 97,83 %
19.11.2021 06:10 9,4 C 8,9 C 7,2 C 97 % 1029,3 hPa 0,0 l/m 0 min 0 min 0 W/m 12,9 km/h (3 Bft) 97,87 %
19.11.2021 06:12 9,4 C 8,9 C 7,2 C 97 % 1029,4 hPa 0,0 l/m 0 min 0 min 0 W/m 9,7 km/h (2 Bft) 97,87 %
19.11.2021 06:14 9,4 C 8,9 C 7,2 C 97 % 1029,4 hPa 0,0 l/m 0 min 0 min 0 W/m 19,3 km/h (3 Bft) 97,87 %
19.11.2021 06:16 9,4 C 8,9 C 7,2 C 97 % 1029,4 hPa 0,0 l/m 0 min 0 min 0 W/m 12,9 km/h (3 Bft) 97,87 %
19.11.2021 06:18 9,4 C 8,9 C 7,2 C 97 % 1029,3 hPa 0,0 l/m 0 min 0 min 0 W/m 12,9 km/h (3 Bft) 97,87 %
19.11.2021 06:20 9,4 C 8,9 C 7,2 C 97 % 1029,4 hPa 0,0 l/m 0 min 0 min 0 W/m 12,9 km/h (3 Bft) 97,83 %
19.11.2021 06:22 9,4 C 8,9 C 7,2 C 97 % 1029,3 hPa 0,0 l/m 0 min 0 min 0 W/m 16,1 km/h (3 Bft) 97,87 %
19.11.2021 06:24 9,4 C 8,9 C 7,2 C 97 % 1029,4 hPa 0,0 l/m 0 min 0 min 0 W/m 12,9 km/h (3 Bft) 100,00 %
19.11.2021 06:26 9,4 C 8,9 C 7,2 C 97 % 1029,4 hPa 0,0 l/m 0 min 0 min 0 W/m 16,1 km/h (3 Bft) 100,00 %
19.11.2021 06:28 9,4 C 8,9 C 7,2 C 97 % 1029,4 hPa 0,0 l/m 0 min 0 min 0 W/m 12,9 km/h (3 Bft) 100,00 %
19.11.2021 06:30 9,5 C 8,9 C 7,2 C 97 % 1029,4 hPa 0,0 l/m 0 min 0 min 0 W/m 12,9 km/h (3 Bft) 100,00 %
19.11.2021 06:32 9,4 C 8,9 C 7,2 C 97 % 1029,3 hPa 0,0 l/m 0 min 0 min 0 W/m 22,5 km/h (4 Bft) 100,00 %
19.11.2021 06:34 9,4 C 8,9 C 7,8 C 97 % 1029,4 hPa 0,0 l/m 0 min 0 min 0 W/m 16,1 km/h (3 Bft) 100,00 %
19.11.2021 06:36 9,4 C 8,9 C 7,8 C 97 % 1029,4 hPa 0,0 l/m 0 min 0 min 0 W/m 19,3 km/h (3 Bft) 100,00 %
19.11.2021 06:38 9,4 C 8,9 C 7,8 C 97 % 1029,4 hPa 0,0 l/m 0 min 0 min 0 W/m 12,9 km/h (3 Bft) 100,00 %
19.11.2021 06:40 9,5 C 8,9 C 7,8 C 98 % 1029,4 hPa 0,0 l/m 0 min 0 min 0 W/m 12,9 km/h (3 Bft) 100,00 %
19.11.2021 06:42 9,5 C 8,9 C 7,8 C 98 % 1029,4 hPa 0,0 l/m 0 min 0 min 0 W/m 3,2 km/h (1 Bft) 97,87 %
19.11.2021 06:44 9,5 C 8,9 C 7,8 C 98 % 1029,4 hPa 0,0 l/m 0 min 0 min 0 W/m 9,7 km/h (2 Bft) 100,00 %
19.11.2021 06:46 9,5 C 8,9 C 7,8 C 98 % 1029,4 hPa 0,0 l/m 0 min 0 min 0 W/m 6,4 km/h (2 Bft) 100,00 %
19.11.2021 06:48 9,5 C 8,9 C 7,8 C 98 % 1029,4 hPa 0,0 l/m 0 min 0 min 0 W/m 12,9 km/h (3 Bft) 97,87 %
19.11.2021 06:50 9,5 C 8,9 C 7,8 C 98 % 1029,4 hPa 0,0 l/m 0 min 0 min 0 W/m 16,1 km/h (3 Bft) 97,87 %
19.11.2021 06:52 9,5 C 8,9 C 7,8 C 97 % 1029,4 hPa 0,0 l/m 0 min 0 min 0 W/m 6,4 km/h (2 Bft) 100,00 %
19.11.2021 06:54 9,5 C 8,9 C 7,8 C 97 % 1029,5 hPa 0,0 l/m 0 min 0 min 0 W/m 12,9 km/h (3 Bft) 100,00 %
19.11.2021 06:56 9,5 C 8,9 C 7,8 C 97 % 1029,5 hPa 0,0 l/m 0 min 0 min 0 W/m 9,7 km/h (2 Bft) 97,83 %
19.11.2021 06:58 9,5 C 8,9 C 7,8 C 97 % 1029,4 hPa 0,0 l/m 0 min 0 min 0 W/m 6,4 km/h (2 Bft) 97,87 %
19.11.2021 07:00 9,5 C 8,9 C 7,8 C 98 % 1029,4 hPa 0,0 l/m 0 min 0 min 0 W/m 16,1 km/h (3 Bft) 100,00 %
19.11.2021 07:02 9,5 C 8,9 C 7,8 C 98 % 1029,4 hPa 0,0 l/m 0 min 0 min 0 W/m 16,1 km/h (3 Bft) 97,87 %
19.11.2021 07:04 9,5 C 8,9 C 7,8 C 98 % 1029,4 hPa 0,0 l/m 0 min 0 min 0 W/m 12,9 km/h (3 Bft) 97,87 %
19.11.2021 07:06 9,5 C 8,9 C 7,8 C 98 % 1029,5 hPa 0,0 l/m 0 min 0 min 0 W/m 6,4 km/h (2 Bft) 95,65 %
19.11.2021 07:08 9,5 C 8,9 C 7,8 C 98 % 1029,4 hPa 0,0 l/m 0 min 0 min 0 W/m 12,9 km/h (3 Bft) 95,74 %
19.11.2021 07:10 9,5 C 8,9 C 7,8 C 98 % 1029,5 hPa 0,0 l/m 0 min 0 min 0 W/m 12,9 km/h (3 Bft) 97,87 %
19.11.2021 07:12 9,5 C 8,9 C 7,8 C 98 % 1029,5 hPa 0,0 l/m 0 min 0 min 0 W/m 16,1 km/h (3 Bft) 95,74 %
19.11.2021 07:14 9,5 C 8,9 C 7,8 C 98 % 1029,4 hPa 0,0 l/m 0 min 0 min 0 W/m 9,7 km/h (2 Bft) 97,87 %
19.11.2021 07:16 9,6 C 8,9 C 7,8 C 98 % 1029,4 hPa 0,0 l/m 0 min 0 min 0 W/m 12,9 km/h (3 Bft) 95,74 %
19.11.2021 07:18 9,6 C 8,9 C 7,8 C 98 % 1029,4 hPa 0,0 l/m 0 min 0 min 0 W/m 6,4 km/h (2 Bft) 95,65 %
19.11.2021 07:20 9,6 C 8,9 C 7,8 C 98 % 1029,4 hPa 0,0 l/m 0 min 0 min 0 W/m 19,3 km/h (3 Bft) 95,74 %
19.11.2021 07:22 9,6 C 8,9 C 7,8 C 98 % 1029,5 hPa 0,0 l/m 0 min 0 min 0 W/m 12,9 km/h (3 Bft) 95,74 %
19.11.2021 07:24 9,6 C 8,9 C 7,8 C 98 % 1029,5 hPa 0,0 l/m 0 min 0 min 0 W/m 12,9 km/h (3 Bft) 95,74 %
19.11.2021 07:26 9,6 C 8,9 C 7,8 C 98 % 1029,5 hPa 0,0 l/m 0 min 0 min 0 W/m 9,7 km/h (2 Bft) 93,62 %
19.11.2021 07:28 9,6 C 8,9 C 7,8 C 98 % 1029,6 hPa 0,0 l/m 0 min 0 min 0 W/m 6,4 km/h (2 Bft) 95,74 %
19.11.2021 07:30 9,6 C 8,9 C 7,8 C 98 % 1029,5 hPa 0,0 l/m 0 min 0 min 0 W/m 12,9 km/h (3 Bft) 95,65 %
19.11.2021 07:32 9,6 C 8,9 C 7,8 C 98 % 1029,6 hPa 0,2 l/m 0 min 0 min 0 W/m 6,4 km/h (2 Bft) 95,74 %
19.11.2021 07:34 9,6 C 8,9 C 7,8 C 98 % 1029,5 hPa 0,0 l/m 0 min 0 min 0 W/m 9,7 km/h (2 Bft) 95,74 %
19.11.2021 07:36 9,6 C 8,9 C 7,8 C 98 % 1029,5 hPa 0,0 l/m 0 min 0 min 0 W/m 3,2 km/h (1 Bft) 95,74 %
19.11.2021 07:38 9,6 C 8,9 C 7,8 C 98 % 1029,6 hPa 0,0 l/m 0 min 2 min 0 W/m 9,7 km/h (2 Bft) 95,74 %
19.11.2021 07:40 9,6 C 8,9 C 7,8 C 98 % 1029,6 hPa 0,0 l/m 0 min 0 min 0 W/m 12,9 km/h (3 Bft) 95,74 %
19.11.2021 07:42 9,6 C 8,9 C 7,8 C 98 % 1029,6 hPa 0,0 l/m 0 min 0 min 0 W/m 6,4 km/h (2 Bft) 95,65 %
19.11.2021 07:44 9,6 C 8,9 C 7,8 C 98 % 1029,7 hPa 0,0 l/m 0 min 0 min 0 W/m 6,4 km/h (2 Bft) 95,74 %
19.11.2021 07:46 9,6 C 8,9 C 7,8 C 98 % 1029,7 hPa 0,0 l/m 0 min 0 min 0 W/m 6,4 km/h (2 Bft) 95,74 %
19.11.2021 07:48 9,6 C 8,9 C 7,8 C 98 % 1029,7 hPa 0,0 l/m 0 min 0 min 0 W/m 3,2 km/h (1 Bft) 97,87 %
19.11.2021 07:50 9,6 C 8,9 C 7,8 C 98 % 1029,7 hPa 0,0 l/m 0 min 0 min 0 W/m 6,4 km/h (2 Bft) 97,87 %
19.11.2021 07:52 9,6 C 8,9 C 7,8 C 98 % 1029,8 hPa 0,0 l/m 0 min 0 min 0 W/m 6,4 km/h (2 Bft) 97,83 %
19.11.2021 07:54 9,6 C 8,9 C 7,8 C 98 % 1029,8 hPa 0,0 l/m 0 min 0 min 0 W/m 6,4 km/h (2 Bft) 97,87 %
19.11.2021 07:56 9,6 C 8,9 C 7,8 C 98 % 1029,8 hPa 0,0 l/m 0 min 0 min 0 W/m 6,4 km/h (2 Bft) 95,74 %
19.11.2021 07:58 9,6 C 8,9 C 7,8 C 98 % 1029,9 hPa 0,0 l/m 0 min 0 min 0 W/m 6,4 km/h (2 Bft) 97,87 %
19.11.2021 08:00 9,6 C 8,9 C 7,8 C 98 % 1029,8 hPa 0,0 l/m 0 min 0 min 0 W/m 6,4 km/h (2 Bft) 97,87 %
19.11.2021 08:02 9,6 C 8,9 C 7,8 C 98 % 1029,9 hPa 0,0 l/m 0 min 0 min 0 W/m 6,4 km/h (2 Bft) 95,74 %
19.11.2021 08:04 9,6 C 8,9 C 7,8 C 98 % 1029,9 hPa 0,0 l/m 0 min 0 min 0 W/m 9,7 km/h (2 Bft) 100,00 %
19.11.2021 08:06 9,6 C 8,9 C 7,8 C 98 % 1029,8 hPa 0,0 l/m 0 min 0 min 0 W/m 6,4 km/h (2 Bft) 95,74 %
19.11.2021 08:08 9,6 C 8,9 C 7,8 C 98 % 1029,9 hPa 0,0 l/m 0 min 0 min 0 W/m 9,7 km/h (2 Bft) 97,96 %
19.11.2021 08:10 9,6 C 8,9 C 7,8 C 98 % 1029,8 hPa 0,0 l/m 0 min 0 min 0 W/m 12,9 km/h (3 Bft) 97,87 %
19.11.2021 08:12 9,6 C 8,9 C 7,8 C 98 % 1029,9 hPa 0,0 l/m 0 min 0 min 0 W/m 9,7 km/h (2 Bft) 97,87 %
19.11.2021 08:14 9,6 C 8,9 C 7,8 C 98 % 1029,9 hPa 0,0 l/m 0 min 0 min 0 W/m 19,3 km/h (3 Bft) 97,87 %
19.11.2021 08:16 9,6 C 8,9 C 7,8 C 98 % 1029,9 hPa 0,0 l/m 0 min 0 min 0 W/m 9,7 km/h (2 Bft) 95,65 %
19.11.2021 08:18 9,6 C 8,9 C 7,8 C 98 % 1029,9 hPa 0,0 l/m 0 min 0 min 0 W/m 19,3 km/h (3 Bft) 97,87 %
19.11.2021 08:20 9,6 C 8,9 C 7,8 C 98 % 1029,8 hPa 0,0 l/m 0 min 0 min 0 W/m 16,1 km/h (3 Bft) 97,87 %
19.11.2021 08:22 9,6 C 8,9 C 7,8 C 98 % 1029,8 hPa 0,0 l/m 0 min 0 min 0 W/m 9,7 km/h (2 Bft) 97,87 %
19.11.2021 08:24 9,6 C 8,9 C 7,8 C 98 % 1029,9 hPa 0,0 l/m 0 min 0 min 0 W/m 12,9 km/h (3 Bft) 97,87 %
19.11.2021 08:26 9,6 C 8,9 C 7,8 C 98 % 1029,9 hPa 0,0 l/m 0 min 0 min 2 W/m 12,9 km/h (3 Bft) 95,74 %
19.11.2021 08:28 9,6 C 8,9 C 7,8 C 98 % 1029,8 hPa 0,0 l/m 0 min 0 min 2 W/m 12,9 km/h (3 Bft) 97,83 %
19.11.2021 08:30 9,6 C 8,9 C 7,8 C 98 % 1029,9 hPa 0,0 l/m 0 min 0 min 3 W/m 12,9 km/h (3 Bft) 97,87 %
19.11.2021 08:32 9,6 C 8,9 C 7,8 C 98 % 1029,9 hPa 0,0 l/m 0 min 0 min 5 W/m 12,9 km/h (3 Bft) 97,87 %
19.11.2021 08:34 9,6 C 8,9 C 7,8 C 98 % 1029,8 hPa 0,0 l/m 0 min 0 min 5 W/m 12,9 km/h (3 Bft) 97,87 %
19.11.2021 08:36 9,6 C 8,9 C 7,8 C 98 % 1029,9 hPa 0,0 l/m 0 min 0 min 7 W/m 12,9 km/h (3 Bft) 95,74 %
19.11.2021 08:38 9,7 C 8,9 C 7,8 C 98 % 1029,9 hPa 0,0 l/m 0 min 0 min 7 W/m 12,9 km/h (3 Bft) 97,83 %
19.11.2021 08:40 9,6 C 8,9 C 7,8 C 98 % 1029,9 hPa 0,0 l/m 0 min 0 min 7 W/m 19,3 km/h (3 Bft) 97,87 %
19.11.2021 08:42 9,6 C 8,9 C 7,8 C 98 % 1029,9 hPa 0,0 l/m 0 min 0 min 8 W/m 16,1 km/h (3 Bft) 97,87 %
19.11.2021 08:44 9,7 C 8,9 C 7,8 C 98 % 1029,9 hPa 0,0 l/m 0 min 0 min 9 W/m 16,1 km/h (3 Bft) 95,74 %
19.11.2021 08:46 9,7 C 8,9 C 7,8 C 98 % 1029,9 hPa 0,0 l/m 0 min 0 min 11 W/m 16,1 km/h (3 Bft) 97,87 %
19.11.2021 08:48 9,7 C 8,9 C 7,8 C 98 % 1030,0 hPa 0,0 l/m 0 min 0 min 11 W/m 12,9 km/h (3 Bft) 97,14 %
19.11.2021 08:50 9,7 C 8,9 C 7,8 C 98 % 1030,0 hPa 0,0 l/m 0 min 0 min 9 W/m 12,9 km/h (3 Bft) 97,87 %
19.11.2021 08:52 9,7 C 8,9 C 7,8 C 98 % 1030,1 hPa 0,0 l/m 0 min 0 min 9 W/m 16,1 km/h (3 Bft) 97,87 %
19.11.2021 08:54 9,7 C 8,9 C 7,8 C 98 % 1030,1 hPa 0,0 l/m 0 min 0 min 9 W/m 12,9 km/h (3 Bft) 100,00 %
19.11.2021 08:56 9,7 C 8,9 C 7,8 C 98 % 1030,1 hPa 0,0 l/m 0 min 0 min 9 W/m 16,1 km/h (3 Bft) 100,00 %
19.11.2021 08:58 9,7 C 8,9 C 7,8 C 98 % 1030,1 hPa 0,0 l/m 0 min 0 min 10 W/m 9,7 km/h (2 Bft) 98,00 %
19.11.2021 09:00 9,7 C 8,9 C 7,8 C 98 % 1030,1 hPa 0,0 l/m 0 min 0 min 9 W/m 9,7 km/h (2 Bft) 100,00 %
19.11.2021 09:02 9,7 C 8,9 C 7,8 C 98 % 1030,1 hPa 0,0 l/m 0 min 0 min 11 W/m 16,1 km/h (3 Bft) 98,00 %
19.11.2021 09:04 9,7 C 8,9 C 7,8 C 98 % 1030,1 hPa 0,0 l/m 0 min 0 min 11 W/m 12,9 km/h (3 Bft) 97,96 %
19.11.2021 09:06 9,8 C 8,9 C 7,8 C 98 % 1030,1 hPa 0,0 l/m 0 min 0 min 12 W/m 12,9 km/h (3 Bft) 97,87 %
19.11.2021 09:08 9,7 C 8,9 C 7,8 C 98 % 1030,1 hPa 0,0 l/m 0 min 0 min 12 W/m 6,4 km/h (2 Bft) 97,67 %
19.11.2021 09:10 9,7 C 8,9 C 7,8 C 98 % 1030,1 hPa 0,0 l/m 0 min 0 min 12 W/m 3,2 km/h (1 Bft) 98,00 %
19.11.2021 09:12 9,7 C 9,4 C 7,8 C 98 % 1030,1 hPa 0,0 l/m 0 min 0 min 14 W/m 12,9 km/h (3 Bft) 97,92 %
19.11.2021 09:14 9,8 C 9,4 C 7,8 C 98 % 1030,1 hPa 0,0 l/m 0 min 0 min 13 W/m 12,9 km/h (3 Bft) 95,65 %
19.11.2021 09:16 9,8 C 9,4 C 7,8 C 98 % 1030,1 hPa 0,0 l/m 0 min 0 min 12 W/m 3,2 km/h (1 Bft) 95,74 %
19.11.2021 09:18 9,8 C 9,4 C 7,8 C 98 % 1030,2 hPa 0,0 l/m 0 min 0 min 12 W/m 6,4 km/h (2 Bft) 97,67 %
19.11.2021 09:20 9,8 C 9,4 C 8,3 C 98 % 1030,2 hPa 0,0 l/m 0 min 0 min 12 W/m 6,4 km/h (2 Bft) 96,00 %
19.11.2021 09:22 9,8 C 9,4 C 8,3 C 98 % 1030,1 hPa 0,0 l/m 0 min 0 min 17 W/m 9,7 km/h (2 Bft) 97,92 %
19.11.2021 09:24 9,8 C 9,4 C 8,3 C 98 % 1030,1 hPa 0,0 l/m 0 min 0 min 19 W/m 9,7 km/h (2 Bft) 95,74 %
19.11.2021 09:26 9,8 C 9,4 C 8,3 C 98 % 1030,1 hPa 0,0 l/m 0 min 0 min 20 W/m 19,3 km/h (3 Bft) 97,83 %
19.11.2021 09:28 9,8 C 9,4 C 8,3 C 98 % 1030,1 hPa 0,0 l/m 0 min 0 min 19 W/m 6,4 km/h (2 Bft) 97,67 %
19.11.2021 09:30 9,8 C 9,4 C 8,3 C 98 % 1030,1 hPa 0,0 l/m 0 min 0 min 16 W/m 9,7 km/h (2 Bft) 98,00 %
19.11.2021 09:32 9,8 C 9,4 C 8,3 C 98 % 1030,1 hPa 0,2 l/m 0 min 0 min 12 W/m 6,4 km/h (2 Bft) 97,92 %
19.11.2021 09:34 9,8 C 9,4 C 8,3 C 98 % 1030,2 hPa 0,0 l/m 0 min 0 min 12 W/m 3,2 km/h (1 Bft) 52,38 %
19.11.2021 09:36 9,8 C 9,4 C 8,3 C 98 % 1030,1 hPa 0,0 l/m 0 min 0 min 15 W/m 6,4 km/h (2 Bft) 100,00 %
19.11.2021 09:38 9,8 C 9,4 C 8,3 C 98 % 1030,2 hPa 0,0 l/m 0 min 0 min 19 W/m 9,7 km/h (2 Bft) 100,00 %
19.11.2021 09:40 9,8 C 9,4 C 8,3 C 98 % 1030,2 hPa 0,0 l/m 0 min 0 min 21 W/m 3,2 km/h (1 Bft) 100,00 %
19.11.2021 09:42 9,8 C 9,4 C 8,3 C 98 % 1030,2 hPa 0,0 l/m 0 min 0 min 19 W/m 9,7 km/h (2 Bft) 100,00 %
19.11.2021 09:44 9,8 C 9,4 C 8,3 C 98 % 1030,2 hPa 0,0 l/m 0 min 0 min 19 W/m 29,0 km/h (5 Bft) 100,00 %
19.11.2021 09:46 9,8 C 9,4 C 8,3 C 98 % 1030,2 hPa 0,0 l/m 0 min 0 min 24 W/m 9,7 km/h (2 Bft) 100,00 %
19.11.2021 09:48 9,8 C 9,4 C 8,3 C 98 % 1030,2 hPa 0,0 l/m 0 min 0 min 22 W/m 6,4 km/h (2 Bft) 100,00 %
19.11.2021 09:50 9,8 C 9,4 C 8,3 C 98 % 1030,2 hPa 0,0 l/m 0 min 0 min 22 W/m 16,1 km/h (3 Bft) 100,00 %
19.11.2021 09:52 9,8 C 9,4 C 8,3 C 98 % 1030,2 hPa 0,0 l/m 0 min 0 min 25 W/m 3,2 km/h (1 Bft) 100,00 %
19.11.2021 09:54 9,9 C 9,4 C 8,3 C 98 % 1030,2 hPa 0,0 l/m 0 min 0 min 28 W/m 12,9 km/h (3 Bft) 100,00 %
19.11.2021 09:56 9,9 C 9,4 C 8,3 C 98 % 1030,3 hPa 0,0 l/m 0 min 0 min 28 W/m 16,1 km/h (3 Bft) 100,00 %
19.11.2021 09:58 9,9 C 9,4 C 8,3 C 98 % 1030,2 hPa 0,0 l/m 0 min 0 min 32 W/m 19,3 km/h (3 Bft) 100,00 %
19.11.2021 10:00 9,9 C 9,4 C 8,3 C 98 % 1030,2 hPa 0,0 l/m 0 min 0 min 34 W/m 12,9 km/h (3 Bft) 100,00 %
19.11.2021 10:02 9,9 C 9,4 C 8,3 C 98 % 1030,2 hPa 0,0 l/m 0 min 0 min 34 W/m 6,4 km/h (2 Bft) 100,00 %
19.11.2021 10:04 9,9 C 9,4 C 8,3 C 98 % 1030,2 hPa 0,0 l/m 0 min 0 min 34 W/m 6,4 km/h (2 Bft) 100,00 %
19.11.2021 10:06 9,9 C 9,4 C 8,3 C 98 % 1030,3 hPa 0,0 l/m 0 min 0 min 28 W/m 12,9 km/h (3 Bft) 96,36 %
19.11.2021 10:08 9,9 C 9,4 C 8,3 C 98 % 1030,2 hPa 0,0 l/m 0 min 0 min 34 W/m 12,9 km/h (3 Bft) 97,87 %
19.11.2021 10:10 9,9 C 9,4 C 8,3 C 98 % 1030,2 hPa 0,0 l/m 0 min 0 min 43 W/m 6,4 km/h (2 Bft) 98,00 %
19.11.2021 10:12 9,9 C 9,4 C 8,3 C 98 % 1030,2 hPa 0,0 l/m 0 min 0 min 39 W/m 9,7 km/h (2 Bft) 94,44 %
19.11.2021 10:14 9,9 C 9,4 C 8,3 C 98 % 1030,1 hPa 0,0 l/m 0 min 0 min 35 W/m 6,4 km/h (2 Bft) 97,83 %
19.11.2021 10:16 10,0 C 9,4 C 8,3 C 98 % 1030,1 hPa 0,0 l/m 0 min 0 min 38 W/m 19,3 km/h (3 Bft) 97,87 %
19.11.2021 10:18 10,0 C 9,4 C 8,3 C 98 % 1030,1 hPa 0,0 l/m 0 min 0 min 42 W/m 9,7 km/h (2 Bft) 96,36 %
19.11.2021 10:20 10,0 C 9,4 C 8,3 C 98 % 1030,1 hPa 0,0 l/m 0 min 0 min 46 W/m 9,7 km/h (2 Bft) 95,74 %
19.11.2021 10:22 10,0 C 9,4 C 8,3 C 98 % 1030,1 hPa 0,0 l/m 0 min 0 min 49 W/m 16,1 km/h (3 Bft) 95,74 %
19.11.2021 10:24 10,0 C 9,4 C 8,3 C 98 % 1030,1 hPa 0,0 l/m 0 min 0 min 47 W/m 9,7 km/h (2 Bft) 97,96 %
19.11.2021 10:26 10,0 C 9,4 C 8,3 C 98 % 1030,1 hPa 0,0 l/m 0 min 0 min 53 W/m 6,4 km/h (2 Bft) 97,87 %
19.11.2021 10:28 10,0 C 10,0 C 8,3 C 98 % 1030,2 hPa 0,0 l/m 0 min 0 min 60 W/m 6,4 km/h (2 Bft) 97,87 %
19.11.2021 10:30 10,0 C 10,0 C 8,3 C 98 % 1030,2 hPa 0,0 l/m 0 min 0 min 54 W/m 6,4 km/h (2 Bft) 97,87 %
19.11.2021 10:32 10,0 C 10,0 C 8,3 C 98 % 1030,2 hPa 0,0 l/m 0 min 0 min 50 W/m 12,9 km/h (3 Bft) 94,44 %
19.11.2021 10:34 10,0 C 10,0 C 8,3 C 98 % 1030,3 hPa 0,0 l/m 0 min 0 min 55 W/m 6,4 km/h (2 Bft) 97,87 %
19.11.2021 10:36 10,1 C 10,0 C 8,9 C 98 % 1030,3 hPa 0,0 l/m 0 min 0 min 60 W/m 19,3 km/h (3 Bft) 98,15 %
19.11.2021 10:38 10,1 C 10,0 C 8,9 C 98 % 1030,3 hPa 0,0 l/m 0 min 0 min 60 W/m 12,9 km/h (3 Bft) 95,74 %
19.11.2021 10:40 10,1 C 10,0 C 8,9 C 98 % 1030,3 hPa 0,0 l/m 0 min 0 min 54 W/m 12,9 km/h (3 Bft) 98,00 %
19.11.2021 10:42 10,1 C 10,0 C 8,9 C 98 % 1030,3 hPa 0,0 l/m 0 min 0 min 51 W/m 6,4 km/h (2 Bft) 94,44 %
19.11.2021 10:44 10,1 C 10,0 C 8,9 C 98 % 1030,3 hPa 0,0 l/m 0 min 0 min 53 W/m 9,7 km/h (2 Bft) 97,87 %
19.11.2021 10:46 10,1 C 10,0 C 8,9 C 98 % 1030,3 hPa 0,0 l/m 0 min 0 min 51 W/m 6,4 km/h (2 Bft) 95,74 %
19.11.2021 10:48 10,1 C 10,0 C 8,9 C 98 % 1030,3 hPa 0,0 l/m 0 min 0 min 48 W/m 6,4 km/h (2 Bft) 94,44 %
19.11.2021 10:50 10,1 C 10,0 C 8,9 C 98 % 1030,3 hPa 0,0 l/m 0 min 0 min 46 W/m 16,1 km/h (3 Bft) 93,62 %
19.11.2021 10:52 10,1 C 10,0 C 8,9 C 98 % 1030,3 hPa 0,0 l/m 0 min 0 min 43 W/m 6,4 km/h (2 Bft) 94,00 %
19.11.2021 10:54 10,1 C 10,0 C 8,9 C 98 % 1030,3 hPa 0,0 l/m 0 min 0 min 43 W/m 12,9 km/h (3 Bft) 97,22 %
19.11.2021 10:56 10,1 C 10,0 C 8,9 C 98 % 1030,3 hPa 0,0 l/m 0 min 0 min 52 W/m 6,4 km/h (2 Bft) 95,74 %
19.11.2021 10:58 10,1 C 10,0 C 8,9 C 98 % 1030,3 hPa 0,0 l/m 0 min 0 min 55 W/m 12,9 km/h (3 Bft) 98,00 %
19.11.2021 11:00 10,2 C 10,0 C 8,9 C 98 % 1030,4 hPa 0,0 l/m 0 min 0 min 51 W/m 12,9 km/h (3 Bft) 96,30 %
19.11.2021 11:02 10,2 C 10,0 C 8,9 C 98 % 1030,4 hPa 0,0 l/m 0 min 0 min 38 W/m 3,2 km/h (1 Bft) 94,74 %
19.11.2021 11:04 10,2 C 10,0 C 8,9 C 98 % 1030,3 hPa 0,0 l/m 0 min 0 min 34 W/m 12,9 km/h (3 Bft) 95,24 %
19.11.2021 11:06 10,2 C 10,0 C 8,9 C 98 % 1030,4 hPa 0,0 l/m 0 min 0 min 33 W/m 6,4 km/h (2 Bft) 96,36 %
19.11.2021 11:08 10,2 C 10,0 C 8,9 C 98 % 1030,4 hPa 0,0 l/m 0 min 0 min 39 W/m 3,2 km/h (1 Bft) 96,00 %
19.11.2021 11:10 10,2 C 10,0 C 8,9 C 98 % 1030,4 hPa 0,0 l/m 0 min 0 min 46 W/m 12,9 km/h (3 Bft) 95,65 %
19.11.2021 11:12 10,2 C 10,0 C 8,9 C 98 % 1030,4 hPa 0,0 l/m 0 min 0 min 49 W/m 16,1 km/h (3 Bft) 95,83 %
19.11.2021 11:14 10,2 C 10,0 C 8,9 C 98 % 1030,3 hPa 0,0 l/m 0 min 0 min 51 W/m 6,4 km/h (2 Bft) 91,43 %
19.11.2021 11:16 10,2 C 10,0 C 8,9 C 98 % 1030,4 hPa 0,0 l/m 0 min 0 min 42 W/m 6,4 km/h (2 Bft) 96,36 %
19.11.2021 11:18 10,2 C 10,0 C 8,9 C 98 % 1030,4 hPa 0,0 l/m 0 min 0 min 31 W/m 9,7 km/h (2 Bft) 93,62 %
19.11.2021 11:20 10,2 C 10,0 C 8,9 C 98 % 1030,4 hPa 0,0 l/m 0 min 0 min 33 W/m 6,4 km/h (2 Bft) 96,00 %
19.11.2021 11:22 10,2 C 10,0 C 8,9 C 98 % 1030,4 hPa 0,0 l/m 0 min 0 min 45 W/m 12,9 km/h (3 Bft) 93,62 %
19.11.2021 11:24 10,2 C 10,0 C 8,9 C 98 % 1030,4 hPa 0,0 l/m 0 min 0 min 53 W/m 19,3 km/h (3 Bft) 97,22 %
19.11.2021 11:26 10,3 C 10,0 C 8,9 C 98 % 1030,4 hPa 0,0 l/m 0 min 0 min 45 W/m 6,4 km/h (2 Bft) 94,44 %
19.11.2021 11:28 10,3 C 10,0 C 8,9 C 98 % 1030,4 hPa 0,0 l/m 0 min 0 min 39 W/m 9,7 km/h (2 Bft) 96,00 %
19.11.2021 11:30 10,3 C 10,0 C 8,9 C 98 % 1030,3 hPa 0,0 l/m 0 min 0 min 41 W/m 6,4 km/h (2 Bft) 95,83 %
19.11.2021 11:32 10,3 C 10,0 C 8,9 C 98 % 1030,4 hPa 0,0 l/m 0 min 0 min 46 W/m 12,9 km/h (3 Bft) 97,14 %
19.11.2021 11:34 10,3 C 10,0 C 8,9 C 98 % 1030,4 hPa 0,0 l/m 0 min 0 min 52 W/m 6,4 km/h (2 Bft) 100,00 %
19.11.2021 11:36 10,3 C 10,0 C 8,9 C 98 % 1030,3 hPa 0,0 l/m 0 min 0 min 53 W/m 12,9 km/h (3 Bft) 100,00 %
19.11.2021 11:38 10,3 C 10,0 C 8,9 C 98 % 1030,3 hPa 0,0 l/m 0 min 0 min 48 W/m 22,5 km/h (4 Bft) 100,00 %
19.11.2021 11:40 10,3 C 10,0 C 8,9 C 98 % 1030,3 hPa 0,0 l/m 0 min 0 min 47 W/m 9,7 km/h (2 Bft) 100,00 %
19.11.2021 11:42 10,3 C 10,0 C 8,9 C 98 % 1030,4 hPa 0,0 l/m 0 min 0 min 47 W/m 9,7 km/h (2 Bft) 100,00 %
19.11.2021 11:44 10,3 C 10,0 C 8,9 C 98 % 1030,4 hPa 0,0 l/m 0 min 0 min 41 W/m 19,3 km/h (3 Bft) 97,87 %
19.11.2021 11:46 10,3 C 10,0 C 8,9 C 98 % 1030,4 hPa 0,0 l/m 0 min 0 min 38 W/m 12,9 km/h (3 Bft) 97,22 %
19.11.2021 11:48 10,3 C 10,0 C 8,9 C 98 % 1030,4 hPa 0,0 l/m 0 min 0 min 54 W/m 12,9 km/h (3 Bft) 100,00 %
19.11.2021 11:50 10,3 C 10,0 C 8,9 C 98 % 1030,4 hPa 0,0 l/m 0 min 0 min 51 W/m 12,9 km/h (3 Bft) 98,18 %
19.11.2021 11:52 10,3 C 10,0 C 8,9 C 98 % 1030,4 hPa 0,0 l/m 0 min 0 min 58 W/m 6,4 km/h (2 Bft) 100,00 %
19.11.2021 11:54 10,4 C 10,0 C 8,9 C 98 % 1030,3 hPa 0,0 l/m 0 min 0 min 68 W/m 12,9 km/h (3 Bft) 97,87 %
19.11.2021 11:56 10,4 C 10,0 C 8,9 C 98 % 1030,4 hPa 0,0 l/m 0 min 0 min 55 W/m 12,9 km/h (3 Bft) 100,00 %
19.11.2021 11:58 10,4 C 10,0 C 8,9 C 98 % 1030,4 hPa 0,0 l/m 0 min 0 min 45 W/m 6,4 km/h (2 Bft) 100,00 %
19.11.2021 12:00 10,4 C 10,0 C 8,9 C 98 % 1030,4 hPa 0,0 l/m 0 min 0 min 45 W/m 12,9 km/h (3 Bft) 100,00 %
19.11.2021 12:02 10,4 C 10,0 C 8,9 C 98 % 1030,3 hPa 0,0 l/m 0 min 0 min 55 W/m 12,9 km/h (3 Bft) 100,00 %
19.11.2021 12:04 10,4 C 10,0 C 8,9 C 98 % 1030,4 hPa 0,0 l/m 0 min 0 min 49 W/m 6,4 km/h (2 Bft) 100,00 %
19.11.2021 12:08 10,4 C 10,0 C 8,9 C 98 % 1030,3 hPa 0,0 l/m 0 min 0 min 40 W/m 19,3 km/h (3 Bft) 97,85 %
19.11.2021 12:10 10,4 C 10,0 C 8,9 C 98 % 1030,3 hPa 0,0 l/m 0 min 0 min 32 W/m 12,9 km/h (3 Bft) 100,00 %
19.11.2021 12:12 10,4 C 10,0 C 8,9 C 98 % 1030,3 hPa 0,0 l/m 0 min 0 min 37 W/m 12,9 km/h (3 Bft) 100,00 %
19.11.2021 12:14 10,4 C 10,0 C 8,9 C 98 % 1030,3 hPa 0,0 l/m 0 min 0 min 40 W/m 12,9 km/h (3 Bft) 100,00 %
19.11.2021 12:16 10,4 C 10,0 C 8,9 C 98 % 1030,3 hPa 0,0 l/m 0 min 0 min 49 W/m 12,9 km/h (3 Bft) 100,00 %
19.11.2021 12:18 10,4 C 10,0 C 8,9 C 98 % 1030,2 hPa 0,0 l/m 0 min 0 min 56 W/m 6,4 km/h (2 Bft) 100,00 %
19.11.2021 12:20 10,4 C 10,0 C 8,9 C 98 % 1030,2 hPa 0,0 l/m 0 min 0 min 61 W/m 12,9 km/h (3 Bft) 100,00 %
19.11.2021 12:22 10,4 C 10,0 C 8,9 C 98 % 1030,2 hPa 0,0 l/m 0 min 0 min 72 W/m 6,4 km/h (2 Bft) 100,00 %
19.11.2021 12:24 10,4 C 10,6 C 8,9 C 98 % 1030,1 hPa 0,0 l/m 0 min 0 min 83 W/m 6,4 km/h (2 Bft) 100,00 %
19.11.2021 12:26 10,5 C 10,6 C 8,9 C 98 % 1030,2 hPa 0,0 l/m 0 min 0 min 84 W/m 9,7 km/h (2 Bft) 100,00 %
19.11.2021 12:28 10,5 C 10,6 C 9,4 C 98 % 1030,2 hPa 0,0 l/m 0 min 0 min 67 W/m 12,9 km/h (3 Bft) 100,00 %
19.11.2021 12:30 10,5 C 10,6 C 9,4 C 98 % 1030,2 hPa 0,0 l/m 0 min 0 min 48 W/m 9,7 km/h (2 Bft) 100,00 %
19.11.2021 12:32 10,5 C 10,6 C 8,9 C 98 % 1030,2 hPa 0,0 l/m 0 min 0 min 40 W/m 6,4 km/h (2 Bft) 100,00 %
19.11.2021 12:34 10,5 C 10,6 C 8,9 C 98 % 1030,2 hPa 0,0 l/m 0 min 0 min 48 W/m 12,9 km/h (3 Bft) 100,00 %
19.11.2021 12:36 10,5 C 10,6 C 9,4 C 98 % 1030,2 hPa 0,0 l/m 0 min 0 min 57 W/m 12,9 km/h (3 Bft) 97,87 %
19.11.2021 12:38 10,5 C 10,6 C 9,4 C 98 % 1030,2 hPa 0,0 l/m 0 min 0 min 70 W/m 6,4 km/h (2 Bft) 100,00 %
19.11.2021 12:40 10,6 C 10,6 C 9,4 C 98 % 1030,3 hPa 0,0 l/m 0 min 0 min 72 W/m 6,4 km/h (2 Bft) 100,00 %
19.11.2021 12:42 10,6 C 10,6 C 9,4 C 98 % 1030,2 hPa 0,0 l/m 0 min 0 min 64 W/m 6,4 km/h (2 Bft) 100,00 %
19.11.2021 12:44 10,6 C 10,6 C 9,4 C 98 % 1030,2 hPa 0,0 l/m 0 min 0 min 53 W/m 6,4 km/h (2 Bft) 100,00 %
19.11.2021 12:46 10,6 C 10,6 C 9,4 C 98 % 1030,2 hPa 0,0 l/m 0 min 0 min 53 W/m 6,4 km/h (2 Bft) 100,00 %
19.11.2021 12:48 10,6 C 10,6 C 9,4 C 98 % 1030,2 hPa 0,0 l/m 0 min 0 min 64 W/m 6,4 km/h (2 Bft) 97,87 %
19.11.2021 12:50 10,6 C 10,6 C 9,4 C 98 % 1030,2 hPa 0,0 l/m 0 min 0 min 64 W/m 12,9 km/h (3 Bft) 100,00 %
19.11.2021 12:52 10,6 C 10,6 C 9,4 C 98 % 1030,2 hPa 0,0 l/m 0 min 0 min 57 W/m 6,4 km/h (2 Bft) 100,00 %
19.11.2021 12:54 10,6 C 10,6 C 9,4 C 98 % 1030,2 hPa 0,0 l/m 0 min 0 min 65 W/m 6,4 km/h (2 Bft) 97,87 %
19.11.2021 12:56 10,6 C 10,6 C 9,4 C 98 % 1030,2 hPa 0,0 l/m 0 min 0 min 54 W/m 9,7 km/h (2 Bft) 100,00 %
19.11.2021 12:58 10,6 C 10,6 C 9,4 C 98 % 1030,2 hPa 0,0 l/m 0 min 0 min 61 W/m 6,4 km/h (2 Bft) 93,62 %
19.11.2021 13:00 10,6 C 10,6 C 9,4 C 98 % 1030,2 hPa 0,0 l/m 0 min 0 min 65 W/m 12,9 km/h (3 Bft) 97,87 %
19.11.2021 13:02 10,6 C 10,6 C 9,4 C 98 % 1030,2 hPa 0,0 l/m 0 min 0 min 56 W/m 9,7 km/h (2 Bft) 95,74 %
19.11.2021 13:04 10,7 C 10,6 C 9,4 C 98 % 1030,2 hPa 0,0 l/m 0 min 0 min 54 W/m 6,4 km/h (2 Bft) 95,74 %
19.11.2021 13:06 10,7 C 10,6 C 9,4 C 98 % 1030,2 hPa 0,0 l/m 0 min 0 min 54 W/m 9,7 km/h (2 Bft) 95,65 %
19.11.2021 13:08 10,7 C 10,6 C 9,4 C 98 % 1030,2 hPa 0,0 l/m 0 min 0 min 49 W/m 16,1 km/h (3 Bft) 93,62 %
19.11.2021 13:10 10,7 C 10,6 C 9,4 C 98 % 1030,2 hPa 0,0 l/m 0 min 0 min 53 W/m 12,9 km/h (3 Bft) 95,74 %
19.11.2021 13:12 10,7 C 10,6 C 9,4 C 98 % 1030,2 hPa 0,0 l/m 0 min 0 min 64 W/m 6,4 km/h (2 Bft) 95,74 %
19.11.2021 13:14 10,7 C 10,6 C 9,4 C 98 % 1030,2 hPa 0,0 l/m 0 min 0 min 67 W/m 12,9 km/h (3 Bft) 93,62 %
19.11.2021 13:16 10,7 C 10,6 C 9,4 C 98 % 1030,2 hPa 0,0 l/m 0 min 0 min 56 W/m 6,4 km/h (2 Bft) 95,74 %
19.11.2021 13:18 10,7 C 10,6 C 9,4 C 98 % 1030,2 hPa 0,0 l/m 0 min 0 min 40 W/m 9,7 km/h (2 Bft) 93,48 %
19.11.2021 13:20 10,8 C 10,6 C 9,4 C 98 % 1030,1 hPa 0,0 l/m 0 min 0 min 33 W/m 6,4 km/h (2 Bft) 95,74 %
19.11.2021 13:22 10,7 C 10,6 C 9,4 C 98 % 1030,2 hPa 0,0 l/m 0 min 0 min 32 W/m 12,9 km/h (3 Bft) 95,74 %
19.11.2021 13:24 10,8 C 10,6 C 9,4 C 98 % 1030,2 hPa 0,0 l/m 0 min 0 min 30 W/m 12,9 km/h (3 Bft) 95,74 %
19.11.2021 13:26 10,8 C 10,6 C 9,4 C 98 % 1030,1 hPa 0,0 l/m 0 min 0 min 28 W/m 12,9 km/h (3 Bft) 95,74 %
19.11.2021 13:28 10,8 C 10,6 C 9,4 C 98 % 1030,1 hPa 0,0 l/m 0 min 0 min 25 W/m 6,4 km/h (2 Bft) 93,62 %
19.11.2021 13:30 10,8 C 10,6 C 9,4 C 98 % 1030,1 hPa 0,0 l/m 0 min 0 min 21 W/m 6,4 km/h (2 Bft) 95,65 %
19.11.2021 13:32 10,9 C 10,6 C 9,4 C 98 % 1030,1 hPa 0,0 l/m 0 min 0 min 20 W/m 6,4 km/h (2 Bft) 91,49 %
19.11.2021 13:34 10,9 C 10,6 C 9,4 C 98 % 1030,1 hPa 0,0 l/m 0 min 0 min 23 W/m 6,4 km/h (2 Bft) 95,74 %
19.11.2021 13:36 10,9 C 10,6 C 9,4 C 97 % 1030,0 hPa 0,0 l/m 0 min 0 min 20 W/m 6,4 km/h (2 Bft) 95,74 %
19.11.2021 13:38 10,9 C 10,6 C 9,4 C 97 % 1030,1 hPa 0,0 l/m 0 min 0 min 21 W/m 6,4 km/h (2 Bft) 93,62 %
19.11.2021 13:40 11,0 C 10,6 C 9,4 C 97 % 1030,0 hPa 0,0 l/m 0 min 0 min 28 W/m 9,7 km/h (2 Bft) 95,74 %
19.11.2021 13:42 11,0 C 10,6 C 9,4 C 97 % 1029,9 hPa 0,0 l/m 0 min 0 min 44 W/m 9,7 km/h (2 Bft) 95,65 %
19.11.2021 13:44 11,0 C 11,1 C 9,4 C 97 % 1029,9 hPa 0,0 l/m 0 min 0 min 53 W/m 6,4 km/h (2 Bft) 95,74 %
19.11.2021 13:46 11,0 C 11,1 C 9,4 C 97 % 1029,8 hPa 0,0 l/m 0 min 0 min 46 W/m 12,9 km/h (3 Bft) 93,62 %
19.11.2021 13:48 11,0 C 11,1 C 9,4 C 97 % 1029,9 hPa 0,0 l/m 0 min 0 min 45 W/m 9,7 km/h (2 Bft) 93,62 %
19.11.2021 13:50 11,0 C 11,1 C 9,4 C 97 % 1029,8 hPa 0,0 l/m 0 min 0 min 50 W/m 6,4 km/h (2 Bft) 97,87 %
19.11.2021 13:52 11,0 C 11,1 C 9,4 C 97 % 1029,9 hPa 0,0 l/m 0 min 0 min 45 W/m 12,9 km/h (3 Bft) 97,87 %
19.11.2021 13:54 11,0 C 11,1 C 9,4 C 97 % 1029,8 hPa 0,0 l/m 0 min 0 min 34 W/m 12,9 km/h (3 Bft) 97,83 %
19.11.2021 13:56 11,0 C 11,1 C 9,4 C 97 % 1029,9 hPa 0,0 l/m 0 min 0 min 38 W/m 12,9 km/h (3 Bft) 97,87 %
19.11.2021 13:58 11,1 C 10,6 C 9,4 C 97 % 1029,8 hPa 0,0 l/m 0 min 0 min 45 W/m 6,4 km/h (2 Bft) 97,87 %
19.11.2021 14:00 11,1 C 11,1 C 9,4 C 97 % 1029,7 hPa 0,0 l/m 0 min 0 min 49 W/m 6,4 km/h (2 Bft) 97,87 %
19.11.2021 14:02 11,1 C 11,1 C 9,4 C 97 % 1029,8 hPa 0,0 l/m 0 min 0 min 46 W/m 9,7 km/h (2 Bft) 95,74 %
19.11.2021 14:04 11,1 C 11,1 C 9,4 C 97 % 1029,7 hPa 0,0 l/m 0 min 0 min 43 W/m 6,4 km/h (2 Bft) 100,00 %
19.11.2021 14:06 11,1 C 11,1 C 9,4 C 97 % 1029,7 hPa 0,0 l/m 0 min 0 min 37 W/m 6,4 km/h (2 Bft) 100,00 %
19.11.2021 14:08 11,1 C 11,1 C 9,4 C 97 % 1029,7 hPa 0,0 l/m 0 min 0 min 31 W/m 12,9 km/h (3 Bft) 100,00 %
19.11.2021 14:10 11,1 C 11,1 C 9,4 C 97 % 1029,7 hPa 0,0 l/m 0 min 0 min 25 W/m 6,4 km/h (2 Bft) 100,00 %
19.11.2021 14:12 11,1 C 10,6 C 9,4 C 97 % 1029,7 hPa 0,0 l/m 0 min 0 min 22 W/m 12,9 km/h (3 Bft) 100,00 %
19.11.2021 14:14 11,1 C 10,6 C 9,4 C 97 % 1029,7 hPa 0,0 l/m 0 min 0 min 29 W/m 12,9 km/h (3 Bft) 100,00 %
19.11.2021 14:16 11,1 C 11,1 C 9,4 C 97 % 1029,7 hPa 0,0 l/m 0 min 0 min 28 W/m 12,9 km/h (3 Bft) 97,83 %
19.11.2021 14:18 11,1 C 11,1 C 9,4 C 96 % 1029,6 hPa 0,0 l/m 0 min 0 min 32 W/m 9,7 km/h (2 Bft) 100,00 %
19.11.2021 14:20 11,1 C 10,6 C 9,4 C 96 % 1029,7 hPa 0,0 l/m 0 min 0 min 34 W/m 9,7 km/h (2 Bft) 100,00 %
19.11.2021 14:22 11,1 C 10,6 C 9,4 C 96 % 1029,7 hPa 0,0 l/m 0 min 0 min 32 W/m 9,7 km/h (2 Bft) 100,00 %
19.11.2021 14:24 11,1 C 10,6 C 9,4 C 96 % 1029,7 hPa 0,0 l/m 0 min 0 min 24 W/m 6,4 km/h (2 Bft) 100,00 %
19.11.2021 14:26 11,2 C 10,6 C 9,4 C 96 % 1029,6 hPa 0,0 l/m 0 min 0 min 25 W/m 6,4 km/h (2 Bft) 100,00 %
19.11.2021 14:28 11,2 C 10,6 C 9,4 C 96 % 1029,7 hPa 0,0 l/m 0 min 0 min 30 W/m 6,4 km/h (2 Bft) 100,00 %
19.11.2021 14:30 11,2 C 10,6 C 9,4 C 96 % 1029,6 hPa 0,0 l/m 0 min 0 min 32 W/m 9,7 km/h (2 Bft) 100,00 %
19.11.2021 14:32 11,2 C 11,1 C 9,4 C 96 % 1029,7 hPa 0,0 l/m 0 min 0 min 30 W/m 3,2 km/h (1 Bft) 100,00 %
19.11.2021 14:34 11,2 C 10,6 C 9,4 C 96 % 1029,6 hPa 0,0 l/m 0 min 0 min 30 W/m 16,1 km/h (3 Bft) 100,00 %
19.11.2021 14:36 11,2 C 10,6 C 9,4 C 96 % 1029,6 hPa 0,0 l/m 0 min 0 min 33 W/m 12,9 km/h (3 Bft) 97,87 %
19.11.2021 14:38 11,2 C 10,6 C 9,4 C 96 % 1029,6 hPa 0,0 l/m 0 min 0 min 38 W/m 12,9 km/h (3 Bft) 97,87 %
19.11.2021 14:40 11,2 C 11,1 C 9,4 C 96 % 1029,6 hPa 0,0 l/m 0 min 0 min 39 W/m 12,9 km/h (3 Bft) 100,00 %
19.11.2021 14:42 11,2 C 11,1 C 9,4 C 96 % 1029,6 hPa 0,0 l/m 0 min 0 min 46 W/m 16,1 km/h (3 Bft) 100,00 %
19.11.2021 14:44 11,2 C 11,1 C 9,4 C 96 % 1029,6 hPa 0,0 l/m 0 min 0 min 50 W/m 6,4 km/h (2 Bft) 100,00 %
19.11.2021 14:46 11,2 C 11,1 C 9,4 C 96 % 1029,5 hPa 0,0 l/m 0 min 0 min 44 W/m 9,7 km/h (2 Bft) 97,87 %
19.11.2021 14:48 11,2 C 11,1 C 9,4 C 96 % 1029,5 hPa 0,0 l/m 0 min 0 min 40 W/m 3,2 km/h (1 Bft) 100,00 %
19.11.2021 14:50 11,3 C 11,1 C 9,4 C 96 % 1029,5 hPa 0,0 l/m 0 min 0 min 39 W/m 3,2 km/h (1 Bft) 100,00 %
19.11.2021 14:52 11,3 C 11,1 C 9,4 C 96 % 1029,6 hPa 0,0 l/m 0 min 0 min 36 W/m 6,4 km/h (2 Bft) 97,83 %
19.11.2021 14:54 11,3 C 11,1 C 9,4 C 96 % 1029,6 hPa 0,0 l/m 0 min 0 min 38 W/m 9,7 km/h (2 Bft) 97,87 %
19.11.2021 14:56 11,3 C 11,1 C 9,4 C 96 % 1029,6 hPa 0,0 l/m 0 min 0 min 40 W/m 9,7 km/h (2 Bft) 97,87 %
19.11.2021 14:58 11,3 C 11,1 C 9,4 C 96 % 1029,6 hPa 0,0 l/m 0 min 0 min 38 W/m 6,4 km/h (2 Bft) 97,87 %
19.11.2021 15:00 11,3 C 11,1 C 9,4 C 96 % 1029,6 hPa 0,0 l/m 0 min 0 min 34 W/m 6,4 km/h (2 Bft) 97,87 %
19.11.2021 15:02 11,3 C 11,1 C 9,4 C 96 % 1029,5 hPa 0,0 l/m 0 min 0 min 36 W/m 6,4 km/h (2 Bft) 97,87 %
19.11.2021 15:04 11,3 C 11,1 C 9,4 C 96 % 1029,6 hPa 0,0 l/m 0 min 0 min 35 W/m 12,9 km/h (3 Bft) 97,83 %
19.11.2021 15:06 11,3 C 11,1 C 9,4 C 96 % 1029,6 hPa 0,0 l/m 0 min 0 min 34 W/m 9,7 km/h (2 Bft) 97,87 %
19.11.2021 15:08 11,3 C 11,1 C 9,4 C 96 % 1029,6 hPa 0,0 l/m 0 min 0 min 32 W/m 9,7 km/h (2 Bft) 97,87 %
19.11.2021 15:10 11,3 C 11,1 C 9,4 C 96 % 1029,6 hPa 0,0 l/m 0 min 0 min 29 W/m 6,4 km/h (2 Bft) 97,87 %
19.11.2021 15:12 11,3 C 11,1 C 9,4 C 95 % 1029,6 hPa 0,0 l/m 0 min 0 min 26 W/m 3,2 km/h (1 Bft) 95,74 %
19.11.2021 15:14 11,3 C 10,6 C 9,4 C 95 % 1029,6 hPa 0,0 l/m 0 min 0 min 26 W/m 6,4 km/h (2 Bft) 95,74 %
19.11.2021 15:16 11,3 C 10,6 C 9,4 C 96 % 1029,4 hPa 0,0 l/m 0 min 0 min 25 W/m 9,7 km/h (2 Bft) 95,65 %
19.11.2021 15:18 11,3 C 10,6 C 9,4 C 96 % 1029,4 hPa 0,0 l/m 0 min 0 min 22 W/m 12,9 km/h (3 Bft) 97,87 %
19.11.2021 15:20 11,3 C 10,6 C 9,4 C 95 % 1029,4 hPa 0,0 l/m 0 min 0 min 18 W/m 12,9 km/h (3 Bft) 95,74 %
19.11.2021 15:22 11,2 C 10,6 C 9,4 C 95 % 1029,4 hPa 0,0 l/m 0 min 0 min 18 W/m 6,4 km/h (2 Bft) 97,87 %
19.11.2021 15:24 11,2 C 10,6 C 9,4 C 95 % 1029,4 hPa 0,0 l/m 0 min 0 min 14 W/m 3,2 km/h (1 Bft) 97,87 %
19.11.2021 15:26 11,3 C 10,6 C 9,4 C 95 % 1029,4 hPa 0,0 l/m 0 min 0 min 11 W/m 12,9 km/h (3 Bft) 97,87 %
19.11.2021 15:28 11,2 C 10,6 C 9,4 C 95 % 1029,4 hPa 0,0 l/m 0 min 0 min 14 W/m 9,7 km/h (2 Bft) 100,00 %
19.11.2021 15:30 11,2 C 10,6 C 9,4 C 95 % 1029,4 hPa 0,0 l/m 0 min 0 min 14 W/m 12,9 km/h (3 Bft) 100,00 %
19.11.2021 15:32 11,2 C 10,6 C 9,4 C 95 % 1029,5 hPa 0,0 l/m 0 min 0 min 11 W/m 9,7 km/h (2 Bft) 100,00 %
19.11.2021 15:34 11,2 C 10,6 C 9,4 C 95 % 1029,4 hPa 0,0 l/m 0 min 0 min 13 W/m 19,3 km/h (3 Bft) 100,00 %
19.11.2021 15:36 11,2 C 10,6 C 9,4 C 95 % 1029,4 hPa 0,0 l/m 0 min 0 min 13 W/m 6,4 km/h (2 Bft) 100,00 %
19.11.2021 15:38 11,2 C 10,6 C 9,4 C 95 % 1029,5 hPa 0,0 l/m 0 min 0 min 11 W/m 6,4 km/h (2 Bft) 100,00 %
19.11.2021 15:40 11,2 C 10,6 C 9,4 C 95 % 1029,5 hPa 0,0 l/m 0 min 0 min 11 W/m 6,4 km/h (2 Bft) 100,00 %
19.11.2021 15:42 11,2 C 10,6 C 9,4 C 95 % 1029,4 hPa 0,0 l/m 0 min 0 min 11 W/m 12,9 km/h (3 Bft) 100,00 %
19.11.2021 15:44 11,2 C 10,6 C 9,4 C 95 % 1029,5 hPa 0,0 l/m 0 min 0 min 13 W/m 6,4 km/h (2 Bft) 72,34 %
19.11.2021 15:46 11,2 C 10,6 C 9,4 C 95 % 1029,5 hPa 0,0 l/m 0 min 0 min 13 W/m 6,4 km/h (2 Bft) 78,95 %
19.11.2021 15:48 11,1 C 10,6 C 9,4 C 95 % 1029,4 hPa 0,0 l/m 0 min 0 min 11 W/m 12,9 km/h (3 Bft) 100,00 %
19.11.2021 15:50 11,1 C 10,6 C 9,4 C 95 % 1029,5 hPa 0,0 l/m 0 min 0 min 10 W/m 6,4 km/h (2 Bft) 100,00 %
19.11.2021 15:52 11,1 C 10,6 C 9,4 C 95 % 1029,5 hPa 0,0 l/m 0 min 0 min 9 W/m 12,9 km/h (3 Bft) 100,00 %
19.11.2021 15:54 11,1 C 10,6 C 9,4 C 95 % 1029,5 hPa 0,0 l/m 0 min 0 min 9 W/m 6,4 km/h (2 Bft) 97,87 %
19.11.2021 15:56 11,1 C 10,6 C 9,4 C 95 % 1029,5 hPa 0,0 l/m 0 min 0 min 9 W/m 6,4 km/h (2 Bft) 91,49 %
19.11.2021 15:58 11,1 C 10,6 C 9,4 C 95 % 1029,5 hPa 0,0 l/m 0 min 0 min 9 W/m 16,1 km/h (3 Bft) 95,74 %
19.11.2021 16:00 11,1 C 10,6 C 9,4 C 95 % 1029,6 hPa 0,0 l/m 0 min 0 min 9 W/m 6,4 km/h (2 Bft) 95,74 %
19.11.2021 16:02 11,1 C 10,6 C 9,4 C 95 % 1029,5 hPa 0,0 l/m 0 min 0 min 7 W/m 6,4 km/h (2 Bft) 91,30 %
19.11.2021 16:04 11,1 C 10,6 C 9,4 C 95 % 1029,5 hPa 0,0 l/m 0 min 0 min 7 W/m 6,4 km/h (2 Bft) 95,74 %
19.11.2021 16:06 11,1 C 10,6 C 9,4 C 95 % 1029,6 hPa 0,0 l/m 0 min 0 min 7 W/m 6,4 km/h (2 Bft) 95,74 %
19.11.2021 16:08 11,1 C 10,6 C 9,4 C 95 % 1029,6 hPa 0,0 l/m 0 min 0 min 7 W/m 6,4 km/h (2 Bft) 93,62 %
19.11.2021 16:10 11,1 C 10,6 C 9,4 C 95 % 1029,6 hPa 0,0 l/m 0 min 0 min 8 W/m 6,4 km/h (2 Bft) 95,74 %
19.11.2021 16:12 11,1 C 10,6 C 9,4 C 95 % 1029,5 hPa 0,0 l/m 0 min 0 min 9 W/m 6,4 km/h (2 Bft) 95,74 %
19.11.2021 16:14 11,1 C 10,6 C 9,4 C 95 % 1029,5 hPa 0,0 l/m 0 min 0 min 7 W/m 6,4 km/h (2 Bft) 95,65 %
19.11.2021 16:16 11,1 C 10,6 C 9,4 C 95 % 1029,6 hPa 0,0 l/m 0 min 0 min 9 W/m 6,4 km/h (2 Bft) 95,74 %
19.11.2021 16:18 11,1 C 10,6 C 9,4 C 95 % 1029,5 hPa 0,0 l/m 0 min 0 min 9 W/m 6,4 km/h (2 Bft) 95,74 %
19.11.2021 16:20 11,1 C 10,6 C 9,4 C 95 % 1029,5 hPa 0,0 l/m 0 min 0 min 9 W/m 6,4 km/h (2 Bft) 95,74 %
19.11.2021 16:22 11,1 C 10,6 C 9,4 C 95 % 1029,5 hPa 0,0 l/m 0 min 0 min 7 W/m 12,9 km/h (3 Bft) 93,62 %
19.11.2021 16:24 11,1 C 10,6 C 9,4 C 95 % 1029,6 hPa 0,0 l/m 0 min 0 min 6 W/m 6,4 km/h (2 Bft) 91,49 %
19.11.2021 16:26 11,1 C 10,6 C 9,4 C 95 % 1029,7 hPa 0,0 l/m 0 min 0 min 5 W/m 9,7 km/h (2 Bft) 95,65 %
19.11.2021 16:28 11,1 C 10,6 C 9,4 C 95 % 1029,7 hPa 0,0 l/m 0 min 0 min 5 W/m 6,4 km/h (2 Bft) 95,74 %
19.11.2021 16:30 11,1 C 10,6 C 9,4 C 95 % 1029,6 hPa 0,0 l/m 0 min 0 min 5 W/m 6,4 km/h (2 Bft) 95,74 %
19.11.2021 16:32 11,1 C 10,6 C 9,4 C 95 % 1029,6 hPa 0,0 l/m 0 min 0 min 5 W/m 9,7 km/h (2 Bft) 93,88 %
19.11.2021 16:34 11,1 C 10,6 C 9,4 C 95 % 1029,6 hPa 0,0 l/m 0 min 0 min 5 W/m 12,9 km/h (3 Bft) 95,74 %
19.11.2021 16:36 11,1 C 10,6 C 9,4 C 95 % 1029,7 hPa 0,0 l/m 0 min 0 min 2 W/m 6,4 km/h (2 Bft) 95,74 %
19.11.2021 16:38 11,1 C 10,6 C 9,4 C 95 % 1029,7 hPa 0,0 l/m 0 min 0 min 0 W/m 6,4 km/h (2 Bft) 97,83 %
19.11.2021 16:40 11,1 C 10,6 C 9,4 C 95 % 1029,6 hPa 0,0 l/m 0 min 0 min 0 W/m 6,4 km/h (2 Bft) 97,87 %
19.11.2021 16:42 11,1 C 10,6 C 9,4 C 95 % 1029,6 hPa 0,0 l/m 0 min 0 min 0 W/m 12,9 km/h (3 Bft) 94,29 %
19.11.2021 16:44 11,1 C 10,6 C 9,4 C 95 % 1029,7 hPa 0,0 l/m 0 min 0 min 0 W/m 6,4 km/h (2 Bft) 95,74 %
19.11.2021 16:46 11,1 C 10,6 C 9,4 C 95 % 1029,7 hPa 0,0 l/m 0 min 0 min 0 W/m 6,4 km/h (2 Bft) 95,74 %
19.11.2021 16:48 11,1 C 10,6 C 9,4 C 95 % 1029,6 hPa 0,0 l/m 0 min 0 min 0 W/m 12,9 km/h (3 Bft) 100,00 %
19.11.2021 16:50 11,1 C 10,6 C 9,4 C 95 % 1029,6 hPa 0,0 l/m 0 min 0 min 0 W/m 3,2 km/h (1 Bft) 94,34 %
19.11.2021 16:52 11,1 C 10,6 C 9,4 C 95 % 1029,6 hPa 0,0 l/m 0 min 0 min 0 W/m 3,2 km/h (1 Bft) 98,00 %
19.11.2021 16:54 11,1 C 10,6 C 9,4 C 95 % 1029,6 hPa 0,0 l/m 0 min 0 min 0 W/m 6,4 km/h (2 Bft) 97,96 %
19.11.2021 16:56 11,1 C 10,6 C 9,4 C 95 % 1029,7 hPa 0,0 l/m 0 min 0 min 0 W/m 6,4 km/h (2 Bft) 94,29 %
19.11.2021 16:58 11,1 C 10,6 C 9,4 C 95 % 1029,6 hPa 0,0 l/m 0 min 0 min 0 W/m 9,7 km/h (2 Bft) 98,15 %
19.11.2021 17:00 11,1 C 10,6 C 9,4 C 95 % 1029,6 hPa 0,0 l/m 0 min 0 min 0 W/m 6,4 km/h (2 Bft) 98,00 %
19.11.2021 17:02 11,1 C 10,6 C 9,4 C 95 % 1029,6 hPa 0,0 l/m 0 min 0 min 0 W/m 3,2 km/h (1 Bft) 97,92 %
19.11.2021 17:04 11,0 C 10,6 C 8,9 C 95 % 1029,7 hPa 0,0 l/m 0 min 0 min 0 W/m 6,4 km/h (2 Bft) 95,83 %
19.11.2021 17:06 11,1 C 10,6 C 9,4 C 95 % 1029,7 hPa 0,0 l/m 0 min 0 min 0 W/m 6,4 km/h (2 Bft) 95,74 %
19.11.2021 17:08 11,0 C 10,6 C 9,4 C 95 % 1029,6 hPa 0,0 l/m 0 min 0 min 0 W/m 9,7 km/h (2 Bft) 97,87 %
19.11.2021 17:10 11,0 C 10,6 C 8,9 C 95 % 1029,7 hPa 0,0 l/m 0 min 0 min 0 W/m 3,2 km/h (1 Bft) 97,30 %
19.11.2021 17:12 11,0 C 10,6 C 8,9 C 95 % 1029,8 hPa 0,0 l/m 0 min 0 min 0 W/m 6,4 km/h (2 Bft) 97,87 %
19.11.2021 17:14 11,0 C 10,6 C 8,9 C 95 % 1029,8 hPa 0,0 l/m 0 min 0 min 0 W/m 3,2 km/h (1 Bft) 95,65 %
19.11.2021 17:16 11,0 C 10,6 C 8,9 C 95 % 1029,7 hPa 0,0 l/m 0 min 0 min 0 W/m 9,7 km/h (2 Bft) 98,15 %
19.11.2021 17:18 11,0 C 10,6 C 8,9 C 95 % 1029,7 hPa 0,0 l/m 0 min 0 min 0 W/m 6,4 km/h (2 Bft) 98,00 %
19.11.2021 17:20 11,0 C 10,6 C 8,9 C 95 % 1029,7 hPa 0,0 l/m 0 min 0 min 0 W/m 12,9 km/h (3 Bft) 100,00 %
19.11.2021 17:22 11,0 C 10,6 C 9,4 C 95 % 1029,7 hPa 0,0 l/m 0 min 0 min 0 W/m 6,4 km/h (2 Bft) 100,00 %
19.11.2021 17:24 11,0 C 10,6 C 8,9 C 95 % 1029,8 hPa 0,0 l/m 0 min 0 min 0 W/m 9,7 km/h (2 Bft) 100,00 %
19.11.2021 17:26 11,0 C 10,6 C 8,9 C 95 % 1029,7 hPa 0,0 l/m 0 min 0 min 0 W/m 6,4 km/h (2 Bft) 97,83 %
19.11.2021 17:28 11,0 C 10,6 C 8,9 C 95 % 1029,8 hPa 0,0 l/m 0 min 0 min 0 W/m 3,2 km/h (1 Bft) 100,00 %
19.11.2021 17:30 11,0 C 10,6 C 8,9 C 95 % 1029,9 hPa 0,0 l/m 0 min 0 min 0 W/m 3,2 km/h (1 Bft) 100,00 %
19.11.2021 17:32 11,0 C 10,6 C 8,9 C 95 % 1029,7 hPa 0,0 l/m 0 min 0 min 0 W/m 6,4 km/h (2 Bft) 100,00 %
19.11.2021 17:34 11,0 C 10,6 C 8,9 C 95 % 1029,7 hPa 0,0 l/m 0 min 0 min 0 W/m 6,4 km/h (2 Bft) 100,00 %
19.11.2021 17:36 11,0 C 10,6 C 8,9 C 95 % 1029,8 hPa 0,0 l/m 0 min 0 min 0 W/m 22,5 km/h (4 Bft) 100,00 %
19.11.2021 17:38 11,0 C 10,6 C 8,9 C 95 % 1029,9 hPa 0,0 l/m 0 min 0 min 0 W/m 12,9 km/h (3 Bft) 100,00 %
19.11.2021 17:40 11,0 C 10,6 C 8,9 C 95 % 1029,8 hPa 0,0 l/m 0 min 0 min 0 W/m 9,7 km/h (2 Bft) 100,00 %
19.11.2021 17:42 11,0 C 10,6 C 8,9 C 95 % 1029,8 hPa 0,0 l/m 0 min 0 min 0 W/m 9,7 km/h (2 Bft) 100,00 %
19.11.2021 17:44 11,0 C 10,6 C 8,9 C 95 % 1029,8 hPa 0,0 l/m 0 min 0 min 0 W/m 6,4 km/h (2 Bft) 100,00 %
19.11.2021 17:46 11,0 C 10,6 C 9,4 C 95 % 1029,9 hPa 0,0 l/m 0 min 0 min 0 W/m 6,4 km/h (2 Bft) 100,00 %
19.11.2021 17:48 11,0 C 10,6 C 8,9 C 95 % 1029,9 hPa 0,0 l/m 0 min 0 min 0 W/m 9,7 km/h (2 Bft) 100,00 %
19.11.2021 17:50 11,0 C 10,6 C 9,4 C 95 % 1029,8 hPa 0,0 l/m 0 min 0 min 0 W/m 6,4 km/h (2 Bft) 100,00 %
19.11.2021 17:52 11,0 C 10,6 C 9,4 C 95 % 1029,7 hPa 0,0 l/m 0 min 0 min 0 W/m 3,2 km/h (1 Bft) 97,87 %
19.11.2021 17:54 11,0 C 10,6 C 8,9 C 95 % 1029,8 hPa 0,0 l/m 0 min 0 min 0 W/m 9,7 km/h (2 Bft) 100,00 %
19.11.2021 17:56 11,0 C 10,6 C 8,9 C 95 % 1029,8 hPa 0,0 l/m 0 min 0 min 0 W/m 3,2 km/h (1 Bft) 100,00 %
19.11.2021 17:58 11,0 C 10,6 C 8,9 C 95 % 1029,8 hPa 0,0 l/m 0 min 0 min 0 W/m 3,2 km/h (1 Bft) 100,00 %
19.11.2021 18:00 11,0 C 10,6 C 8,9 C 95 % 1029,8 hPa 0,0 l/m 0 min 0 min 0 W/m 6,4 km/h (2 Bft) 100,00 %
19.11.2021 18:02 11,0 C 10,6 C 8,9 C 95 % 1029,9 hPa 0,0 l/m 0 min 0 min 0 W/m 19,3 km/h (3 Bft) 100,00 %
19.11.2021 18:04 11,0 C 10,6 C 8,9 C 95 % 1029,8 hPa 0,0 l/m 0 min 0 min 0 W/m 6,4 km/h (2 Bft) 100,00 %
19.11.2021 18:08 11,0 C 10,6 C 8,9 C 95 % 1029,9 hPa 0,0 l/m 0 min 0 min 0 W/m 3,2 km/h (1 Bft) 100,00 %
19.11.2021 18:10 11,0 C 10,6 C 8,9 C 95 % 1029,9 hPa 0,0 l/m 0 min 0 min 0 W/m 0,0 km/h (0 Bft) 100,00 %
19.11.2021 18:12 11,0 C 10,6 C 8,9 C 95 % 1029,8 hPa 0,0 l/m 0 min 0 min 0 W/m 6,4 km/h (2 Bft) 97,87 %
19.11.2021 18:14 11,0 C 10,6 C 8,9 C 95 % 1029,8 hPa 0,0 l/m 0 min 0 min 0 W/m 3,2 km/h (1 Bft) 100,00 %
19.11.2021 18:16 10,9 C 10,6 C 8,9 C 95 % 1029,8 hPa 0,0 l/m 0 min 0 min 0 W/m 6,4 km/h (2 Bft) 100,00 %
19.11.2021 18:18 10,9 C 10,6 C 8,9 C 95 % 1029,9 hPa 0,0 l/m 0 min 0 min 0 W/m 3,2 km/h (1 Bft) 100,00 %
19.11.2021 18:20 10,9 C 10,6 C 8,9 C 95 % 1029,9 hPa 0,0 l/m 0 min 0 min 0 W/m 3,2 km/h (1 Bft) 100,00 %
19.11.2021 18:22 10,9 C 10,0 C 8,9 C 95 % 1030,0 hPa 0,0 l/m 0 min 0 min 0 W/m 6,4 km/h (2 Bft) 97,87 %
19.11.2021 18:24 10,9 C 10,6 C 8,9 C 95 % 1030,0 hPa 0,0 l/m 0 min 0 min 0 W/m 3,2 km/h (1 Bft) 100,00 %
19.11.2021 18:26 10,9 C 10,6 C 8,9 C 95 % 1030,0 hPa 0,0 l/m 0 min 0 min 0 W/m 3,2 km/h (1 Bft) 100,00 %
19.11.2021 18:28 10,9 C 10,6 C 8,9 C 95 % 1030,0 hPa 0,0 l/m 0 min 0 min 0 W/m 0,0 km/h (0 Bft) 100,00 %
19.11.2021 18:30 10,9 C 10,0 C 8,9 C 95 % 1030,0 hPa 0,0 l/m 0 min 0 min 0 W/m 3,2 km/h (1 Bft) 98,15 %
19.11.2021 18:32 10,9 C 10,0 C 8,9 C 95 % 1030,0 hPa 0,0 l/m 0 min 0 min 0 W/m 3,2 km/h (1 Bft) 97,37 %
19.11.2021 18:34 10,9 C 10,6 C 8,9 C 95 % 1030,0 hPa 0,0 l/m 0 min 0 min 0 W/m 3,2 km/h (1 Bft) 97,87 %
19.11.2021 18:36 10,9 C 10,6 C 8,9 C 95 % 1030,1 hPa 0,0 l/m 0 min 0 min 0 W/m 9,7 km/h (2 Bft) 97,83 %
19.11.2021 18:38 10,9 C 10,6 C 8,9 C 95 % 1030,1 hPa 0,0 l/m 0 min 0 min 0 W/m 6,4 km/h (2 Bft) 95,92 %
19.11.2021 18:40 10,9 C 10,6 C 8,9 C 95 % 1030,1 hPa 0,0 l/m 0 min 0 min 0 W/m 3,2 km/h (1 Bft) 97,87 %
19.11.2021 18:42 10,9 C 10,0 C 8,9 C 95 % 1030,1 hPa 0,0 l/m 0 min 0 min 0 W/m 3,2 km/h (1 Bft) 95,74 %
19.11.2021 18:44 10,9 C 10,0 C 8,9 C 95 % 1030,1 hPa 0,0 l/m 0 min 0 min 0 W/m 3,2 km/h (1 Bft) 98,15 %
19.11.2021 18:46 10,9 C 10,0 C 8,9 C 95 % 1030,0 hPa 0,0 l/m 0 min 0 min 0 W/m 3,2 km/h (1 Bft) 94,74 %
19.11.2021 18:48 10,9 C 10,0 C 8,9 C 95 % 1030,0 hPa 0,0 l/m 0 min 0 min 0 W/m 3,2 km/h (1 Bft) 95,83 %
19.11.2021 18:50 10,9 C 10,6 C 8,9 C 95 % 1030,1 hPa 0,0 l/m 0 min 0 min 0 W/m 6,4 km/h (2 Bft) 89,36 %
19.11.2021 18:52 10,9 C 10,6 C 8,9 C 95 % 1030,1 hPa 0,0 l/m 0 min 0 min 0 W/m 9,7 km/h (2 Bft) 94,44 %
19.11.2021 18:54 10,9 C 10,6 C 8,9 C 95 % 1030,1 hPa 0,0 l/m 0 min 0 min 0 W/m 6,4 km/h (2 Bft) 91,49 %
19.11.2021 18:56 10,9 C 10,6 C 8,9 C 95 % 1030,1 hPa 0,0 l/m 0 min 0 min 0 W/m 6,4 km/h (2 Bft) 94,74 %
19.11.2021 18:58 10,9 C 10,6 C 8,9 C 95 % 1030,1 hPa 0,0 l/m 0 min 0 min 0 W/m 6,4 km/h (2 Bft) 93,75 %
19.11.2021 19:00 10,9 C 10,6 C 8,9 C 95 % 1030,1 hPa 0,0 l/m 0 min 0 min 0 W/m 3,2 km/h (1 Bft) 91,49 %
19.11.2021 19:02 10,9 C 10,6 C 8,9 C 95 % 1030,1 hPa 0,0 l/m 0 min 0 min 0 W/m 3,2 km/h (1 Bft) 91,49 %
19.11.2021 19:04 10,9 C 10,6 C 8,9 C 95 % 1030,1 hPa 0,0 l/m 0 min 0 min 0 W/m 6,4 km/h (2 Bft) 93,62 %
19.11.2021 19:06 10,9 C 10,6 C 8,9 C 95 % 1030,1 hPa 0,0 l/m 0 min 0 min 0 W/m 3,2 km/h (1 Bft) 93,62 %
19.11.2021 19:08 10,9 C 10,0 C 8,9 C 95 % 1030,1 hPa 0,0 l/m 0 min 0 min 0 W/m 3,2 km/h (1 Bft) 93,62 %
19.11.2021 19:10 10,9 C 10,0 C 8,9 C 95 % 1030,0 hPa 0,0 l/m 0 min 0 min 0 W/m 0,0 km/h (0 Bft) 95,65 %
19.11.2021 19:12 10,9 C 10,0 C 8,9 C 95 % 1030,0 hPa 0,0 l/m 0 min 0 min 0 W/m 0,0 km/h (0 Bft) 95,74 %
19.11.2021 19:14 10,9 C 10,0 C 8,9 C 95 % 1030,1 hPa 0,0 l/m 0 min 0 min 0 W/m 0,0 km/h (0 Bft) 94,44 %
19.11.2021 19:16 10,9 C 10,0 C 8,9 C 95 % 1030,1 hPa 0,0 l/m 0 min 0 min 0 W/m 3,2 km/h (1 Bft) 92,11 %
19.11.2021 19:18 10,9 C 10,0 C 8,9 C 95 % 1030,1 hPa 0,0 l/m 0 min 0 min 0 W/m 3,2 km/h (1 Bft) 97,87 %
19.11.2021 19:20 10,9 C 10,0 C 8,9 C 95 % 1030,1 hPa 0,0 l/m 0 min 0 min 0 W/m 3,2 km/h (1 Bft) 95,92 %
19.11.2021 19:22 10,9 C 10,0 C 8,9 C 95 % 1030,1 hPa 0,0 l/m 0 min 0 min 0 W/m 0,0 km/h (0 Bft) 97,83 %
19.11.2021 19:24 10,9 C 10,0 C 8,9 C 95 % 1030,1 hPa 0,0 l/m 0 min 0 min 0 W/m 12,9 km/h (3 Bft) 97,87 %
19.11.2021 19:26 10,9 C 10,0 C 8,9 C 95 % 1030,1 hPa 0,0 l/m 0 min 0 min 0 W/m 6,4 km/h (2 Bft) 97,87 %
19.11.2021 19:28 10,9 C 10,0 C 8,9 C 95 % 1030,2 hPa 0,0 l/m 0 min 0 min 0 W/m 6,4 km/h (2 Bft) 98,15 %
19.11.2021 19:30 10,8 C 10,0 C 8,9 C 95 % 1030,2 hPa 0,0 l/m 0 min 0 min 0 W/m 3,2 km/h (1 Bft) 97,87 %
19.11.2021 19:32 10,8 C 10,0 C 8,9 C 95 % 1030,2 hPa 0,0 l/m 0 min 0 min 0 W/m 3,2 km/h (1 Bft) 97,83 %
19.11.2021 19:34 10,8 C 10,0 C 8,9 C 95 % 1030,2 hPa 0,0 l/m 0 min 0 min 0 W/m 6,4 km/h (2 Bft) 95,74 %
19.11.2021 19:36 10,8 C 10,0 C 8,9 C 95 % 1030,2 hPa 0,0 l/m 0 min 0 min 0 W/m 3,2 km/h (1 Bft) 95,74 %
19.11.2021 19:38 10,8 C 10,0 C 8,9 C 95 % 1030,2 hPa 0,0 l/m 0 min 0 min 0 W/m 6,4 km/h (2 Bft) 97,37 %
19.11.2021 19:40 10,8 C 10,0 C 8,9 C 95 % 1030,2 hPa 0,0 l/m 0 min 0 min 0 W/m 3,2 km/h (1 Bft) 97,96 %
19.11.2021 19:42 10,8 C 10,0 C 8,9 C 95 % 1030,2 hPa 0,0 l/m 0 min 0 min 0 W/m 6,4 km/h (2 Bft) 100,00 %
19.11.2021 19:44 10,8 C 10,0 C 8,9 C 95 % 1030,3 hPa 0,0 l/m 0 min 0 min 0 W/m 6,4 km/h (2 Bft) 100,00 %
19.11.2021 19:46 10,8 C 10,0 C 8,9 C 95 % 1030,3 hPa 0,0 l/m 0 min 0 min 0 W/m 6,4 km/h (2 Bft) 97,83 %
19.11.2021 19:48 10,8 C 10,0 C 8,9 C 95 % 1030,2 hPa 0,0 l/m 0 min 0 min 0 W/m 3,2 km/h (1 Bft) 97,87 %
19.11.2021 19:50 10,8 C 10,0 C 8,9 C 95 % 1030,2 hPa 0,0 l/m 0 min 0 min 0 W/m 9,7 km/h (2 Bft) 100,00 %
19.11.2021 19:52 10,8 C 10,0 C 8,9 C 95 % 1030,2 hPa 0,0 l/m 0 min 0 min 0 W/m 3,2 km/h (1 Bft) 100,00 %
19.11.2021 19:54 10,8 C 10,0 C 8,9 C 95 % 1030,2 hPa 0,0 l/m 0 min 0 min 0 W/m 3,2 km/h (1 Bft) 100,00 %
19.11.2021 19:56 10,8 C 10,0 C 8,9 C 95 % 1030,2 hPa 0,0 l/m 0 min 0 min 0 W/m 6,4 km/h (2 Bft) 97,87 %
19.11.2021 19:58 10,8 C 10,0 C 8,9 C 95 % 1030,2 hPa 0,0 l/m 0 min 0 min 0 W/m 3,2 km/h (1 Bft) 55,56 %
19.11.2021 20:00 10,8 C 10,0 C 8,9 C 95 % 1030,2 hPa 0,0 l/m 0 min 0 min 0 W/m 6,4 km/h (2 Bft) 100,00 %
19.11.2021 20:02 10,8 C 10,0 C 8,9 C 95 % 1030,3 hPa 0,0 l/m 0 min 0 min 0 W/m 9,7 km/h (2 Bft) 100,00 %
19.11.2021 20:04 10,8 C 10,0 C 8,9 C 95 % 1030,2 hPa 0,0 l/m 0 min 0 min 0 W/m 3,2 km/h (1 Bft) 98,00 %
19.11.2021 20:06 10,8 C 10,0 C 8,9 C 95 % 1030,3 hPa 0,0 l/m 0 min 0 min 0 W/m 6,4 km/h (2 Bft) 97,87 %
19.11.2021 20:08 10,8 C 10,0 C 8,9 C 95 % 1030,3 hPa 0,0 l/m 0 min 0 min 0 W/m 3,2 km/h (1 Bft) 100,00 %
19.11.2021 20:10 10,8 C 10,0 C 8,9 C 95 % 1030,2 hPa 0,0 l/m 0 min 0 min 0 W/m 3,2 km/h (1 Bft) 100,00 %
19.11.2021 20:12 10,8 C 10,0 C 8,9 C 95 % 1030,3 hPa 0,0 l/m 0 min 0 min 0 W/m 6,4 km/h (2 Bft) 100,00 %
19.11.2021 20:14 10,8 C 10,0 C 8,9 C 95 % 1030,2 hPa 0,0 l/m 0 min 0 min 0 W/m 6,4 km/h (2 Bft) 100,00 %
19.11.2021 20:16 10,8 C 10,0 C 8,9 C 95 % 1030,3 hPa 0,0 l/m 0 min 0 min 0 W/m 3,2 km/h (1 Bft) 100,00 %
19.11.2021 20:18 10,8 C 10,0 C 8,9 C 95 % 1030,3 hPa 0,0 l/m 0 min 0 min 0 W/m 6,4 km/h (2 Bft) 100,00 %
19.11.2021 20:20 10,8 C 10,0 C 8,9 C 95 % 1030,3 hPa 0,0 l/m 0 min 0 min 0 W/m 12,9 km/h (3 Bft) 100,00 %
19.11.2021 20:22 10,8 C 10,0 C 8,9 C 95 % 1030,3 hPa 0,0 l/m 0 min 0 min 0 W/m 6,4 km/h (2 Bft) 100,00 %
19.11.2021 20:24 10,8 C 10,0 C 8,9 C 95 % 1030,3 hPa 0,0 l/m 0 min 0 min 0 W/m 6,4 km/h (2 Bft) 100,00 %
19.11.2021 20:26 10,8 C 10,0 C 8,9 C 95 % 1030,4 hPa 0,0 l/m 0 min 0 min 0 W/m 3,2 km/h (1 Bft) 100,00 %
19.11.2021 20:28 10,8 C 10,0 C 8,9 C 95 % 1030,4 hPa 0,0 l/m 0 min 0 min 0 W/m 3,2 km/h (1 Bft) 100,00 %
19.11.2021 20:30 10,8 C 10,0 C 8,9 C 95 % 1030,4 hPa 0,0 l/m 0 min 0 min 0 W/m 3,2 km/h (1 Bft) 100,00 %
19.11.2021 20:32 10,8 C 10,0 C 8,9 C 95 % 1030,4 hPa 0,0 l/m 0 min 0 min 0 W/m 12,9 km/h (3 Bft) 100,00 %
19.11.2021 20:34 10,8 C 10,0 C 8,9 C 95 % 1030,3 hPa 0,0 l/m 0 min 0 min 0 W/m 6,4 km/h (2 Bft) 97,87 %
19.11.2021 20:36 10,7 C 10,0 C 8,9 C 95 % 1030,3 hPa 0,0 l/m 0 min 0 min 0 W/m 3,2 km/h (1 Bft) 100,00 %
19.11.2021 20:38 10,7 C 10,0 C 8,9 C 95 % 1030,3 hPa 0,0 l/m 0 min 0 min 0 W/m 6,4 km/h (2 Bft) 100,00 %
19.11.2021 20:40 10,7 C 10,0 C 8,9 C 95 % 1030,3 hPa 0,0 l/m 0 min 0 min 0 W/m 3,2 km/h (1 Bft) 100,00 %
19.11.2021 20:42 10,7 C 10,0 C 8,9 C 95 % 1030,3 hPa 0,0 l/m 0 min 0 min 0 W/m 3,2 km/h (1 Bft) 95,74 %
19.11.2021 20:44 10,7 C 10,0 C 8,9 C 95 % 1030,2 hPa 0,0 l/m 0 min 0 min 0 W/m 6,4 km/h (2 Bft) 97,92 %
19.11.2021 20:46 10,7 C 10,0 C 8,9 C 95 % 1030,3 hPa 0,0 l/m 0 min 0 min 0 W/m 3,2 km/h (1 Bft) 97,87 %
19.11.2021 20:48 10,7 C 10,0 C 8,9 C 95 % 1030,3 hPa 0,0 l/m 0 min 0 min 0 W/m 3,2 km/h (1 Bft) 95,24 %
19.11.2021 20:50 10,7 C 10,0 C 8,9 C 96 % 1030,3 hPa 0,0 l/m 0 min 0 min 0 W/m 6,4 km/h (2 Bft) 95,74 %
19.11.2021 20:52 10,7 C 10,0 C 8,9 C 96 % 1030,3 hPa 0,0 l/m 0 min 0 min 0 W/m 3,2 km/h (1 Bft) 98,00 %
19.11.2021 20:54 10,7 C 10,0 C 8,9 C 96 % 1030,3 hPa 0,0 l/m 0 min 0 min 0 W/m 6,4 km/h (2 Bft) 97,92 %
19.11.2021 20:56 10,7 C 10,0 C 8,9 C 96 % 1030,3 hPa 0,0 l/m 0 min 0 min 0 W/m 12,9 km/h (3 Bft) 97,87 %
19.11.2021 20:58 10,7 C 10,0 C 8,9 C 96 % 1030,3 hPa 0,0 l/m 0 min 0 min 0 W/m 6,4 km/h (2 Bft) 93,62 %
19.11.2021 21:00 10,7 C 10,0 C 8,9 C 96 % 1030,3 hPa 0,0 l/m 0 min 0 min 0 W/m 6,4 km/h (2 Bft) 95,74 %
19.11.2021 21:02 10,7 C 10,0 C 8,9 C 96 % 1030,2 hPa 0,0 l/m 0 min 0 min 0 W/m 6,4 km/h (2 Bft) 95,74 %
19.11.2021 21:04 10,7 C 10,0 C 8,9 C 96 % 1030,2 hPa 0,0 l/m 0 min 0 min 0 W/m 3,2 km/h (1 Bft) 95,74 %
19.11.2021 21:06 10,7 C 10,0 C 8,9 C 96 % 1030,4 hPa 0,0 l/m 0 min 0 min 0 W/m 6,4 km/h (2 Bft) 95,65 %
19.11.2021 21:08 10,7 C 10,0 C 8,9 C 96 % 1030,4 hPa 0,0 l/m 0 min 0 min 0 W/m 3,2 km/h (1 Bft) 95,74 %
19.11.2021 21:10 10,7 C 10,0 C 8,9 C 96 % 1030,4 hPa 0,0 l/m 0 min 0 min 0 W/m 3,2 km/h (1 Bft) 95,24 %
19.11.2021 21:12 10,7 C 10,0 C 8,9 C 96 % 1030,3 hPa 0,0 l/m 0 min 0 min 0 W/m 6,4 km/h (2 Bft) 95,74 %
19.11.2021 21:14 10,7 C 10,0 C 8,9 C 96 % 1030,3 hPa 0,0 l/m 0 min 0 min 0 W/m 6,4 km/h (2 Bft) 95,74 %
19.11.2021 21:16 10,7 C 10,0 C 8,9 C 96 % 1030,3 hPa 0,0 l/m 0 min 0 min 0 W/m 3,2 km/h (1 Bft) 98,00 %
19.11.2021 21:18 10,6 C 10,0 C 8,9 C 95 % 1030,3 hPa 0,0 l/m 0 min 0 min 0 W/m 6,4 km/h (2 Bft) 97,83 %
19.11.2021 21:20 10,6 C 10,0 C 8,9 C 95 % 1030,3 hPa 0,0 l/m 0 min 0 min 0 W/m 6,4 km/h (2 Bft) 97,96 %
19.11.2021 21:22 10,7 C 10,0 C 8,9 C 95 % 1030,3 hPa 0,0 l/m 0 min 0 min 0 W/m 6,4 km/h (2 Bft) 97,87 %
19.11.2021 21:24 10,7 C 10,0 C 8,9 C 95 % 1030,4 hPa 0,0 l/m 0 min 0 min 0 W/m 3,2 km/h (1 Bft) 97,87 %
19.11.2021 21:26 10,6 C 10,0 C 8,9 C 95 % 1030,4 hPa 0,0 l/m 0 min 0 min 0 W/m 3,2 km/h (1 Bft) 97,62 %
19.11.2021 21:28 10,7 C 10,0 C 8,9 C 95 % 1030,4 hPa 0,0 l/m 0 min 0 min 0 W/m 3,2 km/h (1 Bft) 96,00 %
19.11.2021 21:30 10,6 C 10,0 C 8,9 C 95 % 1030,4 hPa 0,0 l/m 0 min 0 min 0 W/m 12,9 km/h (3 Bft) 97,83 %
19.11.2021 21:32 10,6 C 10,0 C 8,9 C 95 % 1030,4 hPa 0,0 l/m 0 min 0 min 0 W/m 6,4 km/h (2 Bft) 97,87 %
19.11.2021 21:34 10,6 C 10,0 C 8,9 C 95 % 1030,3 hPa 0,0 l/m 0 min 0 min 0 W/m 6,4 km/h (2 Bft) 97,87 %
19.11.2021 21:36 10,6 C 10,0 C 8,9 C 95 % 1030,4 hPa 0,0 l/m 0 min 0 min 0 W/m 3,2 km/h (1 Bft) 97,87 %
19.11.2021 21:38 10,6 C 10,0 C 8,9 C 95 % 1030,4 hPa 0,0 l/m 0 min 0 min 0 W/m 6,4 km/h (2 Bft) 95,74 %
19.11.2021 21:40 10,6 C 10,0 C 8,9 C 95 % 1030,4 hPa 0,0 l/m 0 min 0 min 0 W/m 9,7 km/h (2 Bft) 97,87 %
19.11.2021 21:42 10,6 C 10,0 C 8,9 C 95 % 1030,4 hPa 0,0 l/m 0 min 0 min 0 W/m 6,4 km/h (2 Bft) 100,00 %
19.11.2021 21:44 10,6 C 10,0 C 8,9 C 95 % 1030,4 hPa 0,0 l/m 0 min 0 min 0 W/m 3,2 km/h (1 Bft) 100,00 %
19.11.2021 21:46 10,6 C 10,0 C 8,9 C 95 % 1030,4 hPa 0,0 l/m 0 min 0 min 0 W/m 3,2 km/h (1 Bft) 100,00 %
19.11.2021 21:48 10,6 C 10,0 C 8,9 C 95 % 1030,5 hPa 0,0 l/m 0 min 0 min 0 W/m 6,4 km/h (2 Bft) 95,74 %
19.11.2021 21:50 10,6 C 10,0 C 8,9 C 95 % 1030,4 hPa 0,0 l/m 0 min 0 min 0 W/m 3,2 km/h (1 Bft) 97,62 %
19.11.2021 21:52 10,6 C 10,0 C 8,9 C 95 % 1030,4 hPa 0,0 l/m 0 min 0 min 0 W/m 6,4 km/h (2 Bft) 97,96 %
19.11.2021 21:54 10,6 C 10,0 C 8,9 C 95 % 1030,3 hPa 0,0 l/m 0 min 0 min 0 W/m 6,4 km/h (2 Bft) 95,92 %
19.11.2021 21:56 10,6 C 10,0 C 8,9 C 95 % 1030,3 hPa 0,0 l/m 0 min 0 min 0 W/m 6,4 km/h (2 Bft) 95,74 %
19.11.2021 21:58 10,6 C 10,0 C 8,9 C 95 % 1030,3 hPa 0,0 l/m 0 min 0 min 0 W/m 6,4 km/h (2 Bft) 97,87 %
19.11.2021 22:00 10,6 C 10,0 C 8,9 C 95 % 1030,3 hPa 0,0 l/m 0 min 0 min 0 W/m 6,4 km/h (2 Bft) 97,87 %
19.11.2021 22:02 10,6 C 10,0 C 8,9 C 95 % 1030,2 hPa 0,0 l/m 0 min 0 min 0 W/m 3,2 km/h (1 Bft) 93,62 %
19.11.2021 22:04 10,6 C 10,0 C 8,9 C 95 % 1030,3 hPa 0,0 l/m 0 min 0 min 0 W/m 3,2 km/h (1 Bft) 97,83 %
19.11.2021 22:06 10,6 C 10,0 C 8,9 C 95 % 1030,3 hPa 0,0 l/m 0 min 0 min 0 W/m 3,2 km/h (1 Bft) 97,62 %
19.11.2021 22:08 10,6 C 10,0 C 8,9 C 95 % 1030,3 hPa 0,0 l/m 0 min 0 min 0 W/m 3,2 km/h (1 Bft) 98,00 %
19.11.2021 22:10 10,6 C 10,0 C 8,9 C 95 % 1030,3 hPa 0,0 l/m 0 min 0 min 0 W/m 3,2 km/h (1 Bft) 95,92 %
19.11.2021 22:12 10,6 C 10,0 C 8,9 C 95 % 1030,3 hPa 0,0 l/m 0 min 0 min 0 W/m 3,2 km/h (1 Bft) 95,74 %
19.11.2021 22:14 10,5 C 10,0 C 8,9 C 95 % 1030,3 hPa 0,0 l/m 0 min 0 min 0 W/m 6,4 km/h (2 Bft) 97,87 %
19.11.2021 22:16 10,5 C 10,0 C 8,9 C 95 % 1030,3 hPa 0,0 l/m 0 min 0 min 0 W/m 6,4 km/h (2 Bft) 95,65 %
19.11.2021 22:18 10,5 C 10,0 C 8,9 C 95 % 1030,2 hPa 0,0 l/m 0 min 0 min 0 W/m 3,2 km/h (1 Bft) 95,24 %
19.11.2021 22:20 10,5 C 10,0 C 8,9 C 95 % 1030,3 hPa 0,0 l/m 0 min 0 min 0 W/m 6,4 km/h (2 Bft) 97,87 %
19.11.2021 22:22 10,5 C 10,0 C 8,9 C 95 % 1030,3 hPa 0,0 l/m 0 min 0 min 0 W/m 3,2 km/h (1 Bft) 97,87 %
19.11.2021 22:24 10,5 C 10,0 C 8,9 C 95 % 1030,3 hPa 0,0 l/m 0 min 0 min 0 W/m 6,4 km/h (2 Bft) 97,87 %
19.11.2021 22:26 10,5 C 10,0 C 8,9 C 95 % 1030,3 hPa 0,0 l/m 0 min 0 min 0 W/m 6,4 km/h (2 Bft) 97,87 %
19.11.2021 22:28 10,5 C 10,0 C 8,9 C 95 % 1030,2 hPa 0,0 l/m 0 min 0 min 0 W/m 6,4 km/h (2 Bft) 95,92 %
19.11.2021 22:30 10,5 C 10,0 C 8,9 C 95 % 1030,3 hPa 0,0 l/m 0 min 0 min 0 W/m 6,4 km/h (2 Bft) 95,74 %
19.11.2021 22:32 10,5 C 10,0 C 8,9 C 95 % 1030,2 hPa 0,0 l/m 0 min 0 min 0 W/m 6,4 km/h (2 Bft) 95,74 %
19.11.2021 22:34 10,5 C 10,0 C 8,3 C 95 % 1030,2 hPa 0,0 l/m 0 min 0 min 0 W/m 6,4 km/h (2 Bft) 97,87 %
19.11.2021 22:36 10,4 C 10,0 C 8,3 C 95 % 1030,2 hPa 0,0 l/m 0 min 0 min 0 W/m 3,2 km/h (1 Bft) 95,74 %
19.11.2021 22:38 10,4 C 9,4 C 8,3 C 95 % 1030,2 hPa 0,0 l/m 0 min 0 min 0 W/m 6,4 km/h (2 Bft) 97,87 %
19.11.2021 22:40 10,4 C 9,4 C 8,3 C 95 % 1030,1 hPa 0,0 l/m 0 min 0 min 0 W/m 6,4 km/h (2 Bft) 95,83 %
19.11.2021 22:42 10,4 C 9,4 C 8,3 C 95 % 1030,1 hPa 0,0 l/m 0 min 0 min 0 W/m 3,2 km/h (1 Bft) 97,87 %
19.11.2021 22:44 10,4 C 9,4 C 8,3 C 95 % 1030,1 hPa 0,0 l/m 0 min 0 min 0 W/m 6,4 km/h (2 Bft) 95,74 %
19.11.2021 22:46 10,4 C 9,4 C 8,3 C 95 % 1030,1 hPa 0,0 l/m 0 min 0 min 0 W/m 6,4 km/h (2 Bft) 95,74 %
19.11.2021 22:48 10,3 C 9,4 C 8,3 C 95 % 1030,1 hPa 0,0 l/m 0 min 0 min 0 W/m 6,4 km/h (2 Bft) 97,87 %
19.11.2021 22:50 10,3 C 9,4 C 8,3 C 95 % 1030,2 hPa 0,0 l/m 0 min 0 min 0 W/m 6,4 km/h (2 Bft) 97,83 %
19.11.2021 22:52 10,3 C 9,4 C 8,3 C 95 % 1030,1 hPa 0,0 l/m 0 min 0 min 0 W/m 3,2 km/h (1 Bft) 97,87 %
19.11.2021 22:54 10,3 C 9,4 C 8,3 C 95 % 1030,1 hPa 0,0 l/m 0 min 0 min 0 W/m 3,2 km/h (1 Bft) 95,74 %
19.11.2021 22:56 10,3 C 9,4 C 8,3 C 95 % 1030,0 hPa 0,0 l/m 0 min 0 min 0 W/m 6,4 km/h (2 Bft) 95,74 %
19.11.2021 22:58 10,3 C 9,4 C 8,3 C 95 % 1030,0 hPa 0,0 l/m 0 min 0 min 0 W/m 3,2 km/h (1 Bft) 97,87 %
19.11.2021 23:00 10,3 C 9,4 C 8,3 C 95 % 1030,1 hPa 0,0 l/m 0 min 0 min 0 W/m 3,2 km/h (1 Bft) 97,87 %
19.11.2021 23:02 10,3 C 9,4 C 8,3 C 95 % 1030,1 hPa 0,0 l/m 0 min 0 min 0 W/m 3,2 km/h (1 Bft) 95,65 %
19.11.2021 23:04 10,3 C 9,4 C 8,3 C 95 % 1030,1 hPa 0,0 l/m 0 min 0 min 0 W/m 3,2 km/h (1 Bft) 98,00 %
19.11.2021 23:06 10,3 C 9,4 C 8,3 C 95 % 1030,1 hPa 0,0 l/m 0 min 0 min 0 W/m 3,2 km/h (1 Bft) 94,29 %
19.11.2021 23:08 10,2 C 9,4 C 8,3 C 95 % 1030,1 hPa 0,0 l/m 0 min 0 min 0 W/m 3,2 km/h (1 Bft) 98,15 %
19.11.2021 23:10 10,2 C 9,4 C 8,3 C 95 % 1030,1 hPa 0,0 l/m 0 min 0 min 0 W/m 0,0 km/h (0 Bft) 100,00 %
19.11.2021 23:12 10,2 C 9,4 C 8,3 C 95 % 1030,1 hPa 0,0 l/m 0 min 0 min 0 W/m 3,2 km/h (1 Bft) 97,87 %
19.11.2021 23:14 10,2 C 9,4 C 8,3 C 95 % 1030,1 hPa 0,0 l/m 0 min 0 min 0 W/m 3,2 km/h (1 Bft) 100,00 %
19.11.2021 23:16 10,2 C 9,4 C 8,3 C 95 % 1030,1 hPa 0,0 l/m 0 min 0 min 0 W/m 3,2 km/h (1 Bft) 97,87 %
19.11.2021 23:18 10,2 C 9,4 C 8,3 C 95 % 1030,1 hPa 0,0 l/m 0 min 0 min 0 W/m 3,2 km/h (1 Bft) 100,00 %
19.11.2021 23:20 10,2 C 9,4 C 8,3 C 95 % 1030,0 hPa 0,0 l/m 0 min 0 min 0 W/m 3,2 km/h (1 Bft) 100,00 %
19.11.2021 23:22 10,2 C 9,4 C 8,3 C 95 % 1030,0 hPa 0,0 l/m 0 min 0 min 0 W/m 3,2 km/h (1 Bft) 100,00 %
19.11.2021 23:24 10,2 C 9,4 C 8,3 C 95 % 1029,9 hPa 0,0 l/m 0 min 0 min 0 W/m 0,0 km/h (0 Bft) 97,92 %
19.11.2021 23:26 10,2 C 9,4 C 8,3 C 95 % 1029,9 hPa 0,0 l/m 0 min 0 min 0 W/m 0,0 km/h (0 Bft) 97,87 %
19.11.2021 23:28 10,2 C 9,4 C 8,3 C 95 % 1030,0 hPa 0,0 l/m 0 min 0 min 0 W/m 0,0 km/h (0 Bft) 97,14 %
19.11.2021 23:30 10,1 C 9,4 C 8,3 C 95 % 1030,0 hPa 0,0 l/m 0 min 0 min 0 W/m 0,0 km/h (0 Bft) 96,30 %
19.11.2021 23:32 10,1 C 9,4 C 8,3 C 95 % 1030,0 hPa 0,0 l/m 0 min 0 min 0 W/m 0,0 km/h (0 Bft) 97,87 %
19.11.2021 23:34 10,1 C 9,4 C 8,3 C 95 % 1030,0 hPa 0,0 l/m 0 min 0 min 0 W/m 0,0 km/h (0 Bft) 98,00 %
19.11.2021 23:36 10,1 C 9,4 C 8,3 C 95 % 1030,0 hPa 0,0 l/m 0 min 0 min 0 W/m 0,0 km/h (0 Bft) 97,83 %
19.11.2021 23:38 10,1 C 9,4 C 8,3 C 95 % 1030,0 hPa 0,0 l/m 0 min 0 min 0 W/m 3,2 km/h (1 Bft) 95,74 %
19.11.2021 23:40 10,1 C 9,4 C 8,3 C 95 % 1030,0 hPa 0,0 l/m 0 min 0 min 0 W/m 0,0 km/h (0 Bft) 95,92 %
19.11.2021 23:42 10,1 C 9,4 C 8,3 C 95 % 1030,0 hPa 0,0 l/m 0 min 0 min 0 W/m 3,2 km/h (1 Bft) 97,87 %
19.11.2021 23:44 10,1 C 9,4 C 8,3 C 95 % 1030,0 hPa 0,0 l/m 0 min 0 min 0 W/m 3,2 km/h (1 Bft) 97,87 %
19.11.2021 23:46 10,1 C 9,4 C 8,3 C 95 % 1030,0 hPa 0,0 l/m 0 min 0 min 0 W/m 3,2 km/h (1 Bft) 97,87 %
19.11.2021 23:48 10,1 C 9,4 C 8,3 C 95 % 1030,0 hPa 0,0 l/m 0 min 0 min 0 W/m 3,2 km/h (1 Bft) 95,65 %
19.11.2021 23:50 10,1 C 9,4 C 8,3 C 95 % 1030,0 hPa 0,0 l/m 0 min 0 min 0 W/m 0,0 km/h (0 Bft) 97,22 %
19.11.2021 23:52 10,1 C 9,4 C 8,3 C 95 % 1030,0 hPa 0,0 l/m 0 min 0 min 0 W/m 0,0 km/h (0 Bft) 98,11 %
19.11.2021 23:54 10,1 C 9,4 C 8,3 C 95 % 1030,0 hPa 0,0 l/m 0 min 0 min 0 W/m 3,2 km/h (1 Bft) 95,74 %
19.11.2021 23:56 10,1 C 9,4 C 8,3 C 95 % 1030,1 hPa 0,0 l/m 0 min 0 min 0 W/m 0,0 km/h (0 Bft) 97,87 %
19.11.2021 23:58 10,1 C 9,4 C 8,3 C 95 % 1030,1 hPa 0,0 l/m 0 min 0 min 0 W/m 6,4 km/h (2 Bft) 97,67 %
_ Min-Zeit 00:32 00:00 00:00 00:00 04:36 - - - - 01:26 09:34
Minimum _ 9,1 C 8,3 C 6,7 C 95 % 1029,2 hPa - - - - 0,0 km/h (0 Bft) 52,38 %
_ Max-Zeit 14:50 13:44 12:28 06:40 21:48 07:32 00:00 07:38 12:26 09:44 00:00
Maximum _ 11,3 C 11,1 C 9,4 C 98 % 1030,5 hPa 0,2 l/m 0 min 2 min 84 W/m 29,0 km/h
S-SW (5 Bft)
100,00 %
Durchschnitt _ 10,2 C 9,6 C 8,3 C 96 % 1029,8 hPa #0,4 l/m #0 min. #2 min. 33 W/m 8,5 km/h (2 Bft) 97,37 %
© 2021 W. Hausmann